     2              OBSERVATION DATA    GPS                 RINEX VERSION / TYPE
teqc 1999Jul19 19991123 02:48:03UTC                         PGM / RUN BY / DATE
                                                            COMMENT
Original Marker Name: 0215                                  COMMENT
Campaign Name: HPGN 1991                                    COMMENT
4-Character Station Name: 0215                              COMMENT
6-Character Antenna Code: TRMSST                            COMMENT
Vertical Measurement Point: TGP                             COMMENT
Vertical Offset to Rinex Ref. Point: 0.0629                 COMMENT
Radial Measurement Point: OGP                               COMMENT
Radial Offset to Rinex Ref. Point: 0.2413                   COMMENT
Antenna Height from Field Measurement: 1.7750 m             COMMENT
                                                            COMMENT
Original XYZ: -2475047.7948 -4138671.4516 4163171.2051      COMMENT
New XYZ position is based on association with SCEC monument COMMENT
E1O7R0P5+0011. Position of that monument is believed to be  COMMENT
valid to within 1 m horizontally; vertical accuracy         COMMENT
should be no worse than 3-times this value.                 COMMENT
                                                            COMMENT
Revised Rinex header created by UCSD GPS archive for        COMMENT
GSAC on 10-Mar-2000 (2000:070) 04:39:14 GMT                 COMMENT
For assistance contact dagnew@ucsd.edu or hjohnson@ucsd.edu COMMENT
                                                            COMMENT
HPGN CA 02 15                                               MARKER NAME
0215                                                        MARKER NUMBER
-Unknown- CALIF DEPT TRANSPORTATION                         OBSERVER / AGENCY
485 TRIMBLE 4000 SST NP 4.30 / SP 4.20                      REC # / TYPE / VERS
16 TR 4000SST L1/L2 GEO                                     ANT # / TYPE
 -2475050.4117 -4138665.9010  4163161.4914                  APPROX POSITION XYZ
        1.6956        0.0000        0.0000                  ANTENNA: DELTA H/E/N
     1     1     0                                          WAVELENGTH FACT L1/2
     5    C1    L1    L2    S1    S2                        # / TYPES OF OBSERV
     0                                                      INTERVAL
  1991     6    19    19    53   15.000000                  TIME OF FIRST OBS
  1991     6    19    21    56   15.000000                  TIME OF LAST OBS
                                                            END OF HEADER
 91  6 19 19 53 15.0000000  0  4G 2G 6G13G15
  21063493.727       81756.573 7        -0.38434        27.750           3.563
  20662385.727          -0.34517        -0.04532        20.250           2.313
  21834999.742          -0.19416        -0.15131        17.500           0.813
  23856898.688          -0.01516        -0.17131        12.750           0.438
 91  6 19 19 53 30.0000000  0  4G 2G 6G13G15
  21065201.859       90733.524 7      6994.63424        27.500           3.719
  20661882.875       -2624.911 7     -2045.16222        20.250           2.156
  21825077.930      -52136.668 6    -40625.94521        17.750           0.906
  23856495.813       -2123.848 6     -1655.10421        12.500           0.469
 91  6 19 19 53 45.0000000  0  4G 2G 6G13G15
  21066917.203       99741.134 8     14013.54924        28.250           3.719
  20661401.961       -5168.383 7     -4027.09022        20.250           2.125
  21815172.805     -104195.618 6    -81191.33521        17.750           0.938
  23856112.938       -4133.703 6     -3221.21021        12.250           0.594
 91  6 19 19 54  0.0000000  0  4G 2G 6G13G15
  21068638.969      108792.784 7     21066.77724        27.500           3.750
  20660934.070       -7617.112 7     -5935.18922        20.500           2.094
  21805283.375     -156163.401 6   -121685.68421        17.750           0.906
  23855753.570       -6016.004 6     -4687.93721        12.250           0.563
 91  6 19 19 54 15.0000000  0  4G 2G 6G13G15
  21070371.992      117905.809 7     28167.83324        27.250           3.781
  20660489.430       -9953.728 7     -7755.93222        20.250           2.125
  21795413.898     -208022.292 6   -162095.17421        18.000           0.969
  23855424.555       -7753.410 6     -6041.75121        12.250           0.594
 91  6 19 19 54 30.0000000  0  4G 2G 6G13G15
  21072118.828      127075.918 7     35313.36724        27.250           3.688
  20660065.523      -12182.207 7     -9492.40922        20.250           2.219
  21785566.188     -259776.354 6   -202422.98621        18.000           0.969
  23855118.648       -9350.120 6     -7285.92621        12.000           0.531
 91  6 19 19 54 45.0000000  0  4G 2G 6G13G15
  21073873.906      136303.926 7     42504.01924        26.750           3.688
  20659663.422      -14301.614 7    -11143.90022        20.250           2.156
  21775738.625     -311424.332 6   -242668.13821        18.250           0.906
  23854845.352      -10805.376 6     -8419.88521        13.250           0.500
 91  6 19 19 55  0.0000000  0  4G 2G 6G13G15
  21075642.078      145592.293 7     49741.70124        27.250           3.781
  20659281.883      -16309.260 7    -12708.30322        20.500           2.250
  21765930.117     -362963.604 6   -282828.57721        18.000           1.000
  23854594.891      -12116.675 6     -9441.66321        12.250           0.531
 91  6 19 19 55 15.0000000  0  4G 2G 6G13G15
  21077419.906      154936.584 7     57022.96024        27.000           3.750
  20658917.930      -18209.424 7    -14188.95222        20.500           2.219
  21756142.055     -414398.154 6   -322907.41621        18.250           0.938
  23854370.945      -13288.491 5    -10354.78621        11.750           0.438
 91  6 19 19 55 30.0000000  0  4G 2G 6G13G15
  21079210.602      164339.993 7     64350.28724        27.250           3.656
  20658578.695      -19998.860 7    -15583.32122        20.500           2.313
  21746376.727     -465724.614 6   -362902.03221        18.250           0.969
  23854176.586      -14317.631 6    -11156.70021        12.250           0.438
 91  6 19 19 55 45.0000000  0  4G 2G 6G13G15
  21081009.891      173805.737 7     71726.18524        27.000           3.781
  20658260.594      -21674.136 7    -16888.72822        20.250           2.156
  21736630.891     -516939.285 6   -402809.53621        18.500           1.000
  23854006.336      -15200.806 5    -11844.89621        11.500           0.313
 91  6 19 19 56  0.0000000  0  4G 2G 6G13G15
  21082821.680      183333.284 7     79150.24224        26.750           3.625
  20657965.508      -23235.508 7    -18105.39322        20.500           2.250
  21726904.859     -568042.511 6   -442630.20821        18.750           0.938
  23853865.961      -15938.236 5    -12419.48721        11.500           0.344
 91  6 19 19 56 15.0000000  0  4G 2G 6G13G15
  21084648.141      192922.047 7     86621.99824        27.750           3.719
  20657686.570      -24683.547 7    -19233.73122        20.750           2.281
  21717202.359     -619034.528 6   -482364.22221        18.500           0.938
  23853755.563      -16530.521 5    -12881.01521        11.750           0.406
 91  6 19 19 56 30.0000000  0  4G 2G 6G13G15
  21086485.102      202571.685 7     94141.19124        27.250           3.531
  20657433.320      -26018.113 7    -20273.65422        20.500           2.219
  21707520.195     -669915.203 6   -522011.46421        19.000           1.031
  23853667.844      -16978.071 6    -13229.73121        12.000           0.469
 91  6 19 19 56 45.0000000  0  4G 2G 6G13G15
  21088331.703      212287.956 7    101712.30624        27.250           3.563
  20657201.070      -27233.597 7    -21220.79522        20.500           2.188
  21697859.516     -720678.560 6   -561567.30421        18.750           0.906
  23853615.016      -17275.054 6    -13461.15621        12.000           0.500
 91  6 19 19 57  0.0000000  0  4G 2G 6G13G15
  21090195.586      222069.484 7    109334.27223        27.500           3.469
  20656991.836      -28331.086 7    -22075.98422        20.500           2.156
  21688220.727     -771325.867 6   -601032.71021        18.750           0.938
  23853583.102      -17422.945 5                        10.750
 91  6 19 19 57 15.0000000  0  4G 2G 6G13G15
  21092067.352      231915.129 7    117006.19623        27.000           3.406
  20656805.648      -29311.510 7    -22839.95222        20.250           2.188
  21678604.664     -821857.687 6   -640408.12421        18.750           1.000
  23853585.547      -17422.709 6                        12.000
 91  6 19 19 57 30.0000000  0  4G 2G 6G13G15
  21093953.156      241817.944 7    124722.67623        27.250           3.313
  20656638.445      -30181.875 7    -23518.16622        20.250           2.219
  21669010.266     -872280.629 6   -679698.70021        19.250           1.125
  23853610.039      -17281.464 5                        11.500
 91  6 19 19 57 45.0000000  0  4G 2G 6G13G15
  21095847.852      251783.362 7    132487.93023        26.500           3.344
  20656496.273      -30936.376 7    -24106.08422        20.250           2.156
  21659437.969     -922589.122 6   -718900.09521        19.250           0.969
  23853665.367      -16993.648 6                        12.500
 91  6 19 19 58  0.0000000  0  4G 2G 6G13G15
  21097759.344      261814.553 7    140304.43623        27.500           3.344
  20656374.031      -31571.821 7    -24601.24022        20.250           2.250
  21649885.906     -972779.624 6   -758009.54921        19.000           1.031
  23853748.461      -16556.074 5    -12900.85821        11.750           0.438
 91  6 19 19 58 15.0000000  0  4G 2G 6G13G15
  21099677.625      271906.136 7    148168.00523        27.000           3.344
  20656276.711      -32093.375 7    -25007.64622        20.250           2.156
  21640357.602    -1022857.392 6   -797031.15921        19.500           1.094
  23853862.055      -15974.063 5    -12447.34121        10.750           0.531
 91  6 19 19 58 30.0000000  0  4G 2G 6G13G15
  21101610.602      282063.871 7    156083.11923        26.750           3.406
  20656201.789      -32495.006 7    -25320.60722        20.500           2.156
  21630849.359    -1072816.095 6   -835959.99421        19.250           1.031
  23854001.328      -15241.665 5    -11876.65321        11.500           0.438
 91  6 19 19 58 45.0000000  0  4G 2G 6G13G15
  21103554.414      292283.461 7    164046.42423        26.750           3.344
  20656148.055      -32780.888 7    -25543.37922        20.500           2.188
  21621364.680    -1122659.894 6   -874799.30121        19.750           1.125
  23854165.414      -14363.422 5    -11192.31021        11.250           0.563
 91  6 19 19 59  0.0000000  0  4G 2G 6G13G15
  21105511.078      302567.768 7    172060.16623        26.000           3.313
  20656112.273      -32948.244 7                        20.250
  21611899.883    -1172385.535 6   -913546.52521        19.750           1.031
  23854363.531      -13336.437 6    -10392.03921        12.250           0.500
 91  6 19 19 59 15.0000000  0  4G 2G 6G13G15
  21107480.398      312912.081 7    180120.66123        26.500           3.219
  20656106.242      -33001.220 7                        20.250
  21602462.086    -1221997.262 6   -952204.98621        19.750           1.031
  23854586.898      -12165.198 5     -9479.38521        11.750           0.563
 91  6 19 19 59 30.0000000  0  4G 2G 6G13G15
  21109461.961      323322.151 7    188232.40123        26.750           3.313
  20656115.852      -32934.200 7                        20.000
  21593044.203    -1271488.951 7   -990769.91221        20.000           0.969
  23854837.484      -10844.136 5     -8449.97721        11.750           0.594
 91  6 19 19 59 45.0000000  0  4G 2G 6G13G15
  21111455.328      333799.191 7    196396.31923        26.750           3.344
  20656152.367      -32745.645 7                        20.000
  21583649.219    -1320859.428 6  -1029240.38921        19.750           1.094
  23855115.984       -9372.214 5     -7303.01221        11.250           0.563
 91  6 19 20  0  0.0000000  0  4G 2G 6G13G15
  21113460.258      344337.612 7    204608.06623        26.250           3.281
  20656211.203      -32441.179 7                        20.250
  21574275.500    -1370114.119 7  -1067620.64721        20.000           1.063
  23855421.023       -7754.821 5     -6042.70921        11.500           0.500
 91  6 19 20  0 15.0000000  0  4G 2G 6G13G15
  21115479.086      354941.760 7    212871.03123        27.000           3.406
  20656291.500      -32016.265 7    -24947.58222        20.000           2.344
  21564925.969    -1419248.171 6  -1105906.89421        19.500           1.094
  23855756.359       -5987.770 5     -4665.76221        11.250           0.594
 91  6 19 20  0 30.0000000  0  4G 2G 6G13G15
  21117509.555      365608.212 7    221182.53723        27.250           3.250
  20656396.125      -31474.092 7    -24525.10722        20.000           2.344
  21555597.242    -1468264.550 6  -1144101.44421        19.250           1.031
  23856124.742       -4074.143 5     -3174.60821        11.500           0.531
 91  6 19 20  0 45.0000000  0  4G 2G 6G13G15
  21119550.148      376330.809 7    229537.80223        27.250           3.188
  20656516.359      -30820.739 7    -24016.00322        20.000           2.281
  21546292.531    -1517169.364 6  -1182209.07021        19.500           1.063
  23856513.336       -2020.353 5     -1574.24921        11.250           0.438
 91  6 19 20  1  0.0000000  0  4G 2G 6G13G15
  21121602.680      387117.031 7    237942.64323        27.500           3.219
  20656666.641      -30048.599 7    -23414.33622        20.000           2.344
  21537008.945    -1565954.819 6  -1220223.69021        19.500           0.969
  23856935.148         181.134 6       141.19921        12.000           0.500
 91  6 19 20  1 15.0000000  0  4G 2G 6G13G15
  21123664.453      397956.303 7    246388.82323        27.250           3.250
  20656834.758      -29168.012 7    -22728.15922        20.250           2.219
  21527744.680    -1614630.900 6  -1258153.07821        19.250           1.000
  23857381.000        2520.052 6      1963.73121        12.000           0.406
 91  6 19 20  1 30.0000000  0  4G 2G 6G13G15
  21125741.586      408867.234 7    254890.83823        27.500           3.375
  20657025.180      -28160.305 7    -21942.93422        20.000           2.281
  21518507.992    -1663178.863 6  -1295982.63521        19.500           1.063
  23857853.828        5014.718 6      3907.65321        12.250           0.563
 91  6 19 20  1 45.0000000  0  4G 2G 6G13G15
  21127830.070      419841.910 7    263442.51923        27.500           3.375
  20657241.133      -27033.024 7    -21064.53422        20.000           2.188
  21509291.914    -1711606.326 6  -1333718.30021        19.750           0.969
  23858357.688        7657.185 6      5966.68221        13.250           0.563
 91  6 19 20  2  0.0000000  0  4G 2G 6G13G15
  21129930.125      430879.147 7    272042.96024        27.250           3.500
  20657474.813      -25787.331 6    -20093.86822        19.750           2.281
  21500098.891    -1759914.208 7  -1371360.78221        20.000           1.188
  23858890.766       10446.352 6      8140.05921        13.250           0.563
 91  6 19 20  2 15.0000000  0  4G 2G 6G13G15
  21132040.453      441974.398 7    280688.60523        26.750           3.344
  20657735.016      -24427.733 7    -19034.44122        20.000           2.250
  21490927.344    -1808106.864 7  -1408913.47821        20.250           1.094
  23859445.008       13377.686 6     10424.24621        13.500           0.625
 91  6 19 20  2 30.0000000  0  4G 2G 6G13G15
  21134164.664      453134.384 7    289384.69023        27.250           3.344
  20658018.367      -22947.245 7    -17880.82222        20.250           2.219
  21481780.531    -1856176.908 7  -1446370.63921        20.000           1.063
  23860032.063       16457.723 6     12824.25321        13.250           0.563
 91  6 19 20  2 45.0000000  0  4G 2G 6G13G15
  21136299.789      464356.088 7    298128.87023        26.250           3.250
  20658323.547      -21348.768 7    -16635.24822        20.250           2.438
  21472656.328    -1904127.327 7  -1483734.58021        20.250           1.094
  23860646.586       19683.720 6     15338.03021        13.000           0.594
 91  6 19 20  3  0.0000000  0  4G 2G 6G13G15
  21138445.781      475632.897 7    306915.98823        26.500           3.094
  20658646.250      -19638.952 7    -15302.93122        20.000           2.344
  21463553.148    -1951964.742 7  -1521010.46421        20.500           1.031
  23861286.633       23048.823 5     17960.20721        11.500           0.438
 91  6 19 20  3 15.0000000  0  4G 2G 6G13G15
  21140605.547      486974.175 7    315753.33623        27.000           3.313
  20658994.805      -17808.076 7    -13876.27622        20.500           2.313
  21454472.742    -1999679.234 7  -1558190.56521        20.500           1.094
  23861955.047       26562.478 5     20698.11921        11.750           0.656
 91  6 19 20  3 30.0000000  0  4G 2G 6G13G15
  21142774.328      498378.521 7    324639.83623        26.750           3.219
  20659366.719      -15857.407 7    -12356.27922        20.250           2.344
  21445417.609    -2047271.723 7  -1595275.60421        20.750           1.125
  23862648.758       30223.482 5     23550.83321        10.000           0.625
 91  6 19 20  3 45.0000000  0  4G 2G 6G13G15
  21144956.734      509845.966 7    333575.50023        27.250           3.250
  20659760.633      -13786.608 7    -10742.67022        20.750           2.344
  21436382.484    -2094741.993 7  -1632265.40421        20.000           1.094
  23863376.984       34031.643 5     26518.20121        11.250           0.500
 91  6 19 20  4  0.0000000  0  4G 2G 6G13G15
  21147147.898      521368.114 7    342553.79023        26.750           3.125
  20660175.492      -11604.136 7     -9042.04722        20.750           2.344
  21427371.609    -2142098.318 7  -1669166.41821        20.000           1.125
  23864126.352       37978.373 5     29593.60021        11.000           0.563
 91  6 19 20  4 15.0000000  0  4G 2G 6G13G15
  21149353.250      532960.024 7    351586.44223        26.500           3.063
  20660615.945       -9295.020 7     -7242.74422        21.000           2.313
  21418384.672    -2189325.324 7  -1705966.65721        20.500           1.125
  23864908.734       42078.727 5     32788.69421        11.500           0.406
 91  6 19 20  4 30.0000000  0  4G 2G 6G13G15
  21151573.172      544618.060 7    360670.62423        27.250           3.219
  20661079.359       -6862.594 7     -5347.35022        20.750           2.156
  21409422.289    -2236426.332 7  -1742668.71821        20.500           1.031
  23865716.063       46329.147 5     36100.71421        11.250           0.500
 91  6 19 20  4 45.0000000  0  4G 2G 6G13G15
  21153803.813      556339.927 7    369804.53723        27.250           3.156
  20661565.797       -4309.174 7     -3357.67622        21.000           2.281
  21400482.219    -2283403.354 7  -1779274.16621        20.250           1.125
  23866550.938       50727.284 5     39527.81321        11.500           0.500
 91  6 19 20  5  0.0000000  0  4G 2G 6G13G15
  21156045.289      568124.344 7    378987.19123        27.000           3.125
  20662073.461       -1635.521 7     -1274.31522        20.750           2.281
  21391565.734    -2330257.452 7  -1815783.83121        20.250           1.125
  23867417.719       55271.916 5     43069.08421        11.750           0.500
 91  6 19 20  5 15.0000000  0  4G 2G 6G13G15
  21158299.391      579958.593 7    388208.67723        27.250           3.063
  20662602.359        1145.664 7       892.84422        21.000           2.250
  21382669.320    -2377001.084 7  -1852207.42721        20.250           1.094
  23868308.172       59950.275 6     46714.54621        12.250           0.656
 91  6 19 20  5 30.0000000  0  4G 2G 6G13G15
  21160563.141      591857.563 7    397480.59323        27.000           3.125
  20663153.438        4049.292 7      3155.40822        20.750           2.344
  21373798.016    -2423618.977 7  -1888533.03721        20.500           1.094
  23869226.008       64777.212 5     50475.79221        11.750           0.594
 91  6 19 20  5 45.0000000  0  4G 2G 6G13G15
  21162838.719      603817.998 7    406800.40323        27.000           3.156
  20663730.820        7072.325 7      5511.01322        20.750           2.281
  21364951.336    -2470114.094 7  -1924762.97721        20.500           1.219
  23870173.203       69749.797 6     54350.53921        12.000           0.625
 91  6 19 20  6  0.0000000  0  4G 2G 6G13G15
  21165124.852      615836.449 7    416165.43023        26.750           3.125
  20664326.914       10211.601 6      7957.19822        19.750           2.250
  21356128.977    -2516489.822 7  -1960899.89421        21.250           1.156
  23871143.180       74864.282 6     58335.85221        12.250           0.625
 91  6 19 20  6 15.0000000  0  4G 2G 6G13G15
  21167425.250      627915.150 7    425577.39323        27.500           3.156
  20664948.531       13469.097 7     10495.50422        20.250           2.375
  21347325.391    -2562743.571 7  -1996941.75221        21.250           1.219
  23872146.594       80122.750 6     62433.35021        12.500           0.563
 91  6 19 20  6 30.0000000  0  4G 2G 6G13G15
  21169736.023      640057.461 7    435038.93423        27.250           3.188
  20665590.289       16848.489 7     13128.79222        20.250           2.313
  21338547.805    -2608871.474 7  -2032885.55121        20.250           1.250
  23873177.422       85528.447 6     66645.56921        13.750           0.594
 91  6 19 20  6 45.0000000  0  4G 2G 6G13G15
  21172058.852      652263.188 7    444549.87523        27.750           3.219
  20666257.477       20349.690 7     15856.99122        20.000           2.344
  21329793.852    -2654873.736 7  -2068731.45121        20.000           1.219
  23874229.430       91081.296 6     70972.46721        13.750           0.688
 91  6 19 20  7  0.0000000  0  4G 2G 6G13G15
  21174392.438      664527.991 7    454106.85723        27.250           3.250
  20666946.398       23968.476 7     18676.82222        20.500           2.281
  21321063.336    -2700754.059 7  -2104482.33321        20.000           1.188
  23875317.406       96776.950 6     75410.63221        14.250           0.469
 91  6 19 20  7 15.0000000  0  4G 2G 6G13G15
  21176737.344      676849.686 7    463708.16923        27.500           3.250
  20667654.531       27702.875 7     21586.74422        20.500           2.375
  21312354.641    -2746514.518 7  -2140139.81521        20.000           1.219
  23876428.891      102612.983 6     79958.16221        13.500           0.531
 91  6 19 20  7 30.0000000  0  4G 2G 6G13G15
  21179091.164      689230.121 7    473355.26123        26.500           3.313
  20668389.211       31554.942 7     24588.34522        20.750           2.313
  21303670.953    -2792152.984 7  -2175702.23521        20.000           1.188
  23877564.453      108591.375 6     84616.67821        13.250           0.500
 91  6 19 20  7 45.0000000  0  4G 2G 6G13G15
  21181461.117      701671.327 7    483049.69823        27.000           3.469
  20669142.914       35526.662 7     27683.18922        20.750           2.375
  21295010.227    -2837667.255 7  -2211167.88121        20.000           1.219
  23878731.039      114714.017 6     89387.57221        12.000           0.469
 91  6 19 20  8  0.0000000  0  4G 2G 6G13G15
  21183837.938      714168.879 7    492788.03823        27.000           3.313
  20669924.484       39613.843 7     30867.99822        21.000           2.188
  21286370.070    -2883061.691 6  -2246540.14821        19.750           1.250
  23879919.320      120976.408 6     94267.33721        12.000           0.625
 91  6 19 20  8 15.0000000  0  4G 2G 6G13G15
  21186227.055      726728.470 7    502574.72223        27.000           3.281
  20670722.297       43822.339 7     34147.34122        20.750           2.250
  21277755.625    -2928329.968 6  -2281814.10821        19.500           1.188
  23881139.328      127384.243 5     99260.45621        11.750           0.656
 91  6 19 20  8 30.0000000  0  4G 2G 6G13G15
  21188627.141      739346.210 7    512406.72923        26.250           3.219
  20671545.891       48148.234 7     37518.16022        20.500           2.125
  21269165.258    -2973475.788 7  -2316992.64821        21.000           1.250
  23882386.320      133933.748 6    104363.98221        12.250           0.594
 91  6 19 20  8 45.0000000  0  4G 2G 6G13G15
  21191039.563      752022.424 7    522284.28723        26.750           3.031
  20672394.578       52591.997 7     40980.82722        20.500           2.188
  21260597.563    -3018498.967 7  -2352075.62121        20.750           1.250
  23883660.219      140625.093 6    109577.98421        12.000           0.719
 91  6 19 20  9  0.0000000  0  4G 2G 6G13G15
  21193464.977      764753.047 7    532204.25323        27.250           3.094
  20673257.961       57149.770 7     44532.33722        20.250           2.219
  21252052.461    -3063403.222 7  -2387065.92821        20.500           1.188
  23884961.594      147454.257 6    114899.41221        12.500           0.625
 91  6 19 20  9 15.0000000  0  4G 2G 6G13G15
  21195898.602      777540.811 7    542168.73523        27.750           3.219
  20674149.164       61824.303 7     48174.82522        20.250           2.313
  21243532.133    -3108185.217 7  -2421960.96421        20.500           1.281
  23886284.711      154423.811 6    120330.21321        12.250           0.719
 91  6 19 20  9 30.0000000  0  4G 2G 6G13G15
  21198341.336      790387.380 7    552179.04823        27.000           3.094
  20675063.023       66617.297 7     51909.62622        20.500           2.219
  21235032.898    -3152843.073 7  -2456759.27421        20.500           1.125
  23887636.258      161535.350 6    125871.68521        12.750           0.750
 91  6 19 20  9 45.0000000  0  4G 2G 6G13G15
  21200797.570      803295.265 7    562237.13523        27.250           3.000
  20675998.117       71531.495 7     55738.86622        20.250           2.281
  21226558.164    -3197374.162 7  -2491458.80021        20.000           1.188
  23889021.219      168791.206 6    131525.61421        12.500           0.625
 91  6 19 20 10  0.0000000  0  4G 2G 6G13G15
  21203265.891      816262.279 7    572341.30323        26.750           3.063
  20676954.914       76564.827 7     59660.93722        20.500           2.281
  21218110.633    -3241780.424 7  -2526061.06121        20.500           1.281
  23890427.055      176189.137 5    137290.25621        11.750           0.750
 91  6 19 20 10 15.0000000  0  4G 2G 6G13G15
  21205742.539      829284.185 7    582488.22923        26.500           3.063
  20677932.680       81713.193 7     63672.64922        20.500           2.313
  21209681.367    -3286065.693 7  -2560569.04521        20.500           1.250
  23891860.516      183724.896 5    143162.24821        11.250           0.688
 91  6 19 20 10 30.0000000  0  4G 2G 6G13G15
  21208232.242      842363.142 7    592679.61923        26.500           3.031
  20678935.422       86978.879 7     67775.78422        20.500           2.344
  21201278.688    -3330227.698 7  -2594980.97521        20.750           1.281
  23893321.219      191400.656 5    149143.36121        10.500           0.688
 91  6 19 20 10 45.0000000  0  4G 2G 6G13G15
  21210733.359      855500.762 7    602916.71923        27.000           3.063
  20679959.555       92363.374 7     71971.48722        20.500           2.344
  21192898.594    -3374264.515 7  -2629295.35721        20.500           1.250
  23894810.602      199218.152 5    155234.89021        10.750           0.656
 91  6 19 20 11  0.0000000  0  4G 2G 6G13G15
  21213246.086      868695.663 7    613198.45723        27.750           3.250
  20681006.664       97865.769 7     76259.07122        20.500           2.438
  21184541.805    -3418177.411 7  -2663513.17921        20.250           1.281
  23896322.141      207175.663 5    161435.55221        10.750           0.625
 91  6 19 20 11 15.0000000  0  4G 2G 6G13G15
  21215765.281      881943.841 7    623521.70423        27.250           3.375
  20682074.711      103481.967 7     80635.32422        20.250           2.438
  21176207.203    -3461970.134 7  -2697637.35321        20.500           1.406
  23897867.273      215269.025 5    167742.04821        11.250           0.563
 91  6 19 20 11 30.0000000  0  4G 2G 6G13G15
  21218296.039      895239.092 7    633881.63423        27.250           3.219
  20683163.406      109205.760 7     85095.42022        20.250           2.375
  21167897.406    -3505648.461 7  -2731672.39721        20.500           1.344
  23899428.063      223492.166 5    174149.68521        11.250           0.656
 91  6 19 20 11 45.0000000  0  4G 2G 6G13G15
  21220833.250      908586.841 7    644282.47323        26.500           3.250
  20684276.484      115042.910 7     89643.84222        20.250           2.438
  21159607.305    -3549206.809 7  -2765613.94021        20.500           1.250
  23901016.195      231850.601 6    180662.75421        12.000           0.656
 91  6 19 20 12  0.0000000  0  4G 2G 6G13G15
  21223383.625      921992.205 7    654728.19823        26.500           3.344
  20685408.430      120998.404 7     94284.47822        20.250           2.313
  21151342.281    -3592640.066 7  -2799458.01821        20.250           1.281
  23902636.773      240349.029 6    187284.88521        12.250           0.688
 91  6 19 20 12 15.0000000  0  4G 2G 6G13G15
  21225948.789      935460.181 7    665222.71823        27.000           3.219
  20686567.500      127077.465 7     99021.40522        20.250           2.313
  21143102.969    -3635942.940 7  -2833200.49721        20.250           1.344
  23904281.742      248992.453 6    194019.99821        12.000           0.750
 91  6 19 20 12 30.0000000  0  4G 2G 6G13G15
  21228521.781      948986.667 7    675762.83823        26.750           3.250
  20687744.141      133276.260 7    103851.63322        20.250           2.344
  21134885.406    -3679119.057 7  -2866844.20021        20.250           1.344
  23905953.203      257776.928 6    200865.02921        12.250           0.906
 91  6 19 20 12 45.0000000  0  4G 2G 6G13G15
  21231106.008      962568.878 7    686346.36923        26.000           3.188
  20688948.281      139591.866 7    108772.87822        20.750           2.250
  21126693.234    -3722171.007 7  -2900391.15321        20.250           1.219
  23907654.359      266699.118 6    207817.41121        12.750           0.781
 91  6 19 20 13  0.0000000  0  4G 2G 6G13G15
  21233699.961      976204.835 7    696971.78223        26.250           3.344
  20690172.234      146022.575 7    113783.81922        20.500           2.219
  21118523.695    -3765100.339 7  -2933842.56121        20.000           1.313
  23909376.742      275757.438 6    214875.82721        12.250           0.688
 91  6 19 20 13 15.0000000  0  4G 2G 6G13G15
  21236306.422      989890.119 7    707635.63223        26.250           3.281
  20691416.781      152564.143 7    118881.14322        21.000           2.219
  21110378.398    -3807911.386 7  -2967201.79421        20.250           1.344
  23911124.680      284947.326 6    222036.77421        12.250           0.781
 91  6 19 20 13 30.0000000  0  4G 2G 6G13G15
  21238919.117     1003620.136 7    718334.33423        27.000           3.281
  20692681.477      159211.887 7    124061.20522        20.500           2.188
  21102250.953    -3850608.559 6  -3000472.29521        19.250           1.344
  23912895.023      294264.080 5    229296.58821        11.750           0.688
 91  6 19 20 13 45.0000000  0  4G 2G 6G13G15
  21241543.289     1017406.491 7    729076.94523        27.500           3.313
  20693969.180      165977.471 7    129333.08522        20.750           2.313
  21094150.242    -3893180.002 6  -3033644.83221        19.250           1.281
  23914694.859      303719.217 5    236664.22621        11.500           0.563
 91  6 19 20 14  0.0000000  0  4G 2G 6G13G15
  21244177.039     1031247.710 7    739862.29823        27.250           3.406
  20695277.422      172859.674 7    134695.84022        20.750           2.281
  21086074.695    -3935626.986 6  -3066720.38421        19.250           1.281
  23916519.031      313311.125 5    244138.44421        11.000           0.563
 91  6 19 20 14 15.0000000  0  4G 2G 6G13G15
  21246820.414     1045140.990 7    750688.22423        27.250           3.219
  20696612.047      179855.628 7    140147.22522        21.000           2.406
  21078019.508    -3977952.262 6  -3099701.09321        19.250           1.406
  23918371.430      323036.710 5    251716.81721        10.750           0.656
 91  6 19 20 14 30.0000000  0  4G 2G 6G13G15
  21249473.617     1059088.878 7    761556.69923        26.750           3.406
  20697965.359      186967.955 7    145689.29922        21.000           2.344
  21069988.930    -4020152.959 6  -3132584.73921        19.500           1.375
  23920246.328      332898.549 5    259401.34921        11.250           0.594
 91  6 19 20 14 45.0000000  0  4G 2G 6G13G15
  21252139.867     1073094.126 7    772469.86823        27.000           3.406
  20699337.109      194199.663 7    151324.39422        20.500           2.281
  21061983.500    -4062226.112 6  -3165368.99421        19.750           1.375
  23922154.383      342899.407 5    267194.21021        11.750           0.781
 91  6 19 20 15  0.0000000  0  4G 2G 6G13G15
  21254814.992     1087161.932 7    783431.78923        27.000           3.219
  20700741.594      201556.102 7    157056.68222        20.750           2.344
  21054000.609    -4104166.025 6  -3198049.42221        19.250           1.344
  23924084.898      353044.558 5    275099.52721        11.750           0.875
 91  6 19 20 15 15.0000000  0  4G 2G 6G13G15
  21257505.016     1101284.517 7    794436.39423        27.750           3.094
  20702160.680      209029.570 7    162880.15822        20.000           2.281
  21046043.602    -4145980.274 6  -3230631.93921        19.000           1.219
  23926038.469      363326.265 5    283111.24321        11.750           1.000
 91  6 19 20 15 30.0000000  0  4G 2G 6G13G15
  21260204.195     1115463.183 8    805484.69323        28.000           2.969
  20703603.703      216621.364 7    168795.83622        20.000           2.375
  21038113.711    -4187667.652 6  -3263115.58821        19.250           1.281
  23928018.836      373745.398 5    291230.04721        11.500           0.875
 91  6 19 20 15 45.0000000  0  4G 2G 6G13G15
  21262910.734     1129700.023 7    816578.33523        27.250           3.000
  20705075.305      224333.660 7    174805.41222        20.000           2.344
  21030203.633    -4229225.599 7  -3295498.37621        20.500           1.313
  23930033.703      384303.868 6    299457.41521        12.000           0.719
 91  6 19 20 16  0.0000000  0  4G 2G 6G13G15
  21265630.844     1143996.583 7    827718.50523        26.750           3.125
  20706567.430      232168.123 7    180910.18422        20.250           2.344
  21022320.359    -4270652.426 7  -3327779.00121        20.500           1.313
  23932063.320      395003.128 5    307794.48321        11.750           0.781
 91  6 19 20 16 15.0000000  0  4G 2G 6G13G15
  21268361.781     1158348.034 7    838901.44223        27.000           3.000
  20708078.813      240119.912 7    187106.38222        20.000           2.375
  21014461.367    -4311952.628 7  -3359960.95821        20.500           1.250
  23934129.109      405838.373 5    316237.52221        11.250           0.781
 91  6 19 20 16 30.0000000  0  4G 2G 6G13G15
  21271105.188     1172759.380 7    850131.05123        27.500           3.063
  20709611.813      248194.340 7    193398.14122        20.000           2.281
  21006627.047    -4353120.918 7  -3392040.12821        20.500           1.344
  23936220.883      416814.630 5    324790.42821        10.250           0.719
 91  6 19 20 16 45.0000000  0  4G 2G 6G13G15
  21273858.273     1187222.714 8    861401.17123        28.000           3.125
  20711170.055      256383.373 7    199779.20022        20.000           2.281
  20998816.422    -4394165.263 7  -3424022.71321        20.500           1.344
  23938332.695      427923.836 5    333446.92621         9.750           0.625
 91  6 19 20 17  0.0000000  0  4G 2G 6G13G15
  21276622.047     1201745.009 7    872717.23623        27.500           3.063
  20712752.508      264694.179 7    206255.15322        20.250           2.375
  20991031.266    -4435078.597 7  -3455903.21021        20.250           1.313
  23940473.352      439172.735 5    342212.28321        10.000           0.750
 91  6 19 20 17 15.0000000  0  4G 2G 6G13G15
  21279396.789     1216322.731 8    884076.49323        28.250           3.031
  20714357.031      273123.193 7    212823.21422        20.000           2.156
  20983271.164    -4475863.930 7  -3487683.97121        20.250           1.469
  23942638.578      450557.605 5    351083.59321         9.250           0.750
 91  6 19 20 17 30.0000000  0  4G 2G 6G13G15
  21282178.258     1230952.086 7    895475.98423        26.750           3.125
  20715982.625      281666.549 7    219480.37622        20.250           2.250
  20975531.492    -4516525.045 7  -3519367.93621        20.500           1.344
  23944826.344      462074.415 5    360057.71721         8.750           0.656
 91  6 19 20 17 45.0000000  0  4G 2G 6G13G15
  21284972.359     1245636.940 7    906918.71523        27.000           3.125
  20717633.383      290328.369 7    226229.84422        20.500           2.281
  20967818.375    -4557057.885 7  -3550951.95221        20.250           1.375
  23947045.664      473727.062 5    369137.68921         9.000           0.688
 91  6 19 20 18  0.0000000  0  4G 2G 6G13G15
  21287776.820     1260376.176 7    918403.82023        27.250           3.094
  20719303.789      299107.662 7    233070.84722        20.250           2.344
  20960130.813    -4597463.251 7  -3582436.63421        20.500           1.344
  23949289.703      485514.451 5    378322.65021         8.750           0.625
 91  6 19 20 18 15.0000000  0  4G 2G 6G13G15
  21290591.688     1275173.595 7    929934.26823        27.250           3.125
  20720999.531      308008.312 7    240006.41322        20.250           2.406
  20952467.133    -4637736.964 7  -3613818.73121        20.500           1.344
  23951561.055      497440.212 5    387615.43021         8.750           0.594
 91  6 19 20 18 30.0000000  0  4G 2G 6G13G15
  21293421.617     1290028.318 7    941509.36423        27.250           3.219
  20722712.055      317029.678 7    247036.04222        20.000           2.438
  20944828.508    -4677879.768 7  -3645098.81521        20.500           1.313
  23953855.102      509503.530 5    397015.41921         9.000           0.500
 91  6 19 20 18 45.0000000  0  4G 2G 6G13G15
  21296260.672     1304943.555 7    953131.61423        27.250           3.219
  20724451.023      326174.821 7    254162.12222        20.250           2.313
  20937214.727    -4717888.413 6  -3676274.37321        19.500           1.375
  23956176.289      521707.443 5    406524.97021         9.750           0.438
 91  6 19 20 19  0.0000000  0  4G 2G 6G13G15
  21299105.672     1319917.144 7    964799.32823        26.250           3.219
  20726216.617      335441.765 7    261383.10922        20.250           2.313
  20929626.891    -4757764.671 6  -3707346.76721        19.750           1.344
  23958524.234      534049.645 5    416142.26021         9.500           0.531
 91  6 19 20 19 15.0000000  0  4G 2G 6G13G15
  21301968.250     1334950.706 7    976513.77223        27.000           3.156
  20728005.008      344832.257 7    268700.36322        20.750           2.344
  20922062.781    -4797506.738 6  -3738314.58821        19.500           1.344
  23960902.352      546531.609 5    425868.44521         8.500           0.469
 91  6 19 20 19 30.0000000  0  4G 2G 6G13G15
  21304842.430     1350044.247 7    988274.96623        26.750           3.344
  20729812.563      354346.171 7    276113.79922        20.750           2.313
  20914527.063    -4837114.351 6  -3769177.64621        19.500           1.469
  23963301.797      559153.115 5    435703.35821         8.500           0.469
 91  6 19 20 19 45.0000000  0  4G 2G 6G13G15
  21307724.523     1365203.451 7   1000087.31123        26.750           3.125
  20731650.977      363989.479 7    283628.06122        21.000           2.344
  20907017.023    -4876581.849 7  -3799931.52321        20.000           1.406
  23965730.641      571919.896 5    445651.47821         8.000           0.625
 91  6 19 20 20  0.0000000  0  4G 2G 6G13G15
  21310623.180     1380428.023 7   1011950.59923        26.250           3.063
  20733508.047      373761.679 7    291242.76322        21.250           2.250
  20899533.164    -4915909.510 6  -3830576.43421        19.750           1.469
  23968187.797      584831.388 5    455712.36421         7.750           0.531
 91  6 19 20 20 15.0000000  0  4G 2G 6G13G15
  21313529.680     1395711.803 7   1023860.02423        26.250           2.906
  20735392.469      383656.840 7    298953.27122        21.000           2.250
  20892073.797    -4955102.954 6  -3861116.76521        19.500           1.469
  23970673.625      597881.318 5    465881.12221         8.000           0.500
 91  6 19 20 20 30.0000000  0  4G 2G 6G13G15
  21316452.891     1411056.956 7   1035817.28423        26.250           2.938
  20737297.117      393677.329 7    306761.44122        20.750           2.313
  20884642.656    -4994159.774 7  -3891550.63021        21.000           1.313
  23973180.234      611071.870 4    476159.45721         7.250           0.500
 91  6 19 20 20 45.0000000  0  4G 2G 6G13G15
  21319381.797     1426460.686 7   1047820.17023        26.500           2.750
  20739231.313      403820.154 7    314664.92922        20.750           2.313
  20877234.898    -5033082.739 7  -3921880.19821        20.500           1.344
  23975721.414      624399.986 4    486544.98021         7.250           0.531
 91  6 19 20 21  0.0000000  0  4G 2G 6G13G15
  21322327.055     1441929.857 7   1059874.05123        26.250           2.719
  20741182.445      414092.482 7    322669.33622        20.250           2.219
  20869853.508    -5071864.730 7  -3952099.91221        20.750           1.438
  23978286.016      637872.275 5    497042.83621         7.750           0.531
 91  6 19 20 21 15.0000000  0  4G 2G 6G13G15
  21325281.820     1457457.734 7   1071973.69023        26.250           2.813
  20743159.867      424487.458 7    330769.30722        20.000           2.344
  20862499.930    -5110512.158 7  -3982214.77821        21.250           1.438
  23980871.023      651482.091 5    507647.86921         7.750           0.563
 91  6 19 20 21 30.0000000  0  4G 2G 6G13G15
  21328248.609     1473048.221 7   1084122.10723        27.250           2.844
  20745165.320      435009.188 6    338968.05122        19.500           2.281
  20855172.289    -5149021.174 7  -4012221.78321        20.750           1.469
  23983491.258      665233.217 5    518362.98821         9.000           0.688
 91  6 19 20 21 45.0000000  0  4G 2G 6G13G15
  21331223.258     1488695.646 7   1096314.89323        25.750           2.781
  20747188.617      445652.017 6    347261.15522        19.500           2.250
  20847870.195    -5187397.277 7  -4042125.22621        21.250           1.375
  23986133.852      679119.981 5    529183.82521         9.000           0.750
 91  6 19 20 22  0.0000000  0  4G 2G 6G13G15
  21334214.883     1504395.963 7   1108548.89023        27.250           2.844
  20749233.594      456411.779 6    355645.38622        19.750           2.281
  20840591.281    -5225644.279 7  -4071928.06521        20.750           1.313
  23988801.992      693137.899 5    540106.84721         8.500           0.625
 91  6 19 20 22 15.0000000  0  4G 2G 6G13G15
  21337212.523     1520152.419 7   1120826.63823        27.000           2.969
  20751304.953      467291.995 7    364123.46822        20.000           2.156
  20833338.758    -5263758.761 7  -4101627.64821        21.000           1.406
  23991494.836      707290.352 5    551134.70321         8.000           0.625
 91  6 19 20 22 30.0000000  0  4G 2G 6G13G15
  21340220.820     1535972.967 7   1133154.32823        26.750           2.875
  20753400.984      478300.607 7    372701.60022        20.500           2.250
  20826112.398    -5301732.412 7  -4131217.49121        20.250           1.469
  23994214.125      721585.028 5    562273.36621         8.250           0.656
 91  6 19 20 22 45.0000000  0  4G 2G 6G13G15
  21343243.883     1551846.292 8   1145523.13623        28.000           2.938
  20755519.227      489426.367 7    381371.01422        20.250           2.125
  20818911.641    -5339576.454 6  -4160706.33821        19.750           1.406
  23996959.742      736010.209 5    573513.72021         9.250           0.719
 91  6 19 20 23  0.0000000  0  4G 2G 6G13G15
  21346274.508     1567783.296 7   1157941.56823        27.250           2.938
  20757662.688      500680.292 7    390140.30422        20.500           2.281
  20811736.680    -5377279.557 6  -4190085.36421        19.750           1.406
  23999730.266      750576.957 5    584864.40221         9.250           0.625
 91  6 19 20 23 15.0000000  0  4G 2G 6G13G15
  21349320.898     1583781.560 8   1170407.73823        28.500           3.000
  20759825.898      512060.011 7    399007.61222        20.000           2.281
  20804587.727    -5414844.416 6  -4219356.66521        19.500           1.375
  24002528.477      765282.827 5    596323.50921         8.750           0.563
 91  6 19 20 23 30.0000000  0  4G 2G 6G13G15
  21352374.859     1599833.642 7   1182915.84523        27.250           3.000
  20762015.148      523558.148 7    407967.19722        20.500           2.281
  20797464.234    -5452278.024 7  -4248525.69221        20.000           1.375
  24005351.898      780120.089 5    607884.98421         8.500           0.500
 91  6 19 20 23 45.0000000  0  4G 2G 6G13G15
  21355443.805     1615951.199 8   1195474.95223        28.000           3.031
  20764227.281      535186.393 7    417028.16122        20.500           2.375
  20790367.961    -5489568.776 6  -4277583.40421        19.250           1.406
  24008205.109      795100.319 5    619557.87221         8.500           0.625
 91  6 19 20 24  0.0000000  0  4G 2G 6G13G15
  21358521.500     1632133.168 7   1208084.26923        26.000           3.125
  20766463.281      546943.680 7    426189.68122        20.250           2.281
  20783298.969    -5526717.302 7  -4306530.28521        21.250           1.469
  24011080.805      810222.444 5    631341.32521         9.000           0.500
 91  6 19 20 24 15.0000000  0  4G 2G 6G13G15
  21361611.125     1648369.755 7   1220736.13623        26.000           3.000
  20768721.961      558820.424 6    435444.27622        19.750           2.344
  20776255.438    -5563733.303 7  -4335373.90421        21.250           1.438
  24013980.672      825476.268 5    643227.37321         8.000           0.438
 91  6 19 20 24 30.0000000  0  4G 2G 6G13G15
  21364710.727     1664669.870 7   1233437.50523        26.000           2.844
  20771009.406      570825.397 6    444798.79222        19.750           2.281
  20769239.109    -5600607.757 7  -4364107.23121        21.750           1.438
  24016917.977      840870.519 4    655222.86021         7.000           0.469
 91  6 19 20 24 45.0000000  0  4G 2G 6G13G15
  21367825.313     1681023.651 7   1246180.69523        27.000           2.844
  20773317.578      582948.855 6    454245.64322        19.750           2.375
  20762245.430    -5637350.164 7  -4392737.66321        21.000           1.438
  24019865.195      856395.298 4    667320.05021         7.250           0.406
 91  6 19 20 25  0.0000000  0  4G 2G 6G13G15
  21370949.250     1697438.884 7   1258971.77423        26.250           2.906
  20775644.977      595198.658 6    463790.93322        19.500           2.313
  20755280.773    -5673952.485 7  -4421258.93721        21.500           1.406
  24022848.688      872058.293 5    679524.94521         8.250           0.375
 91  6 19 20 25 15.0000000  0  4G 2G 6G13G15
  21374084.938     1713917.068 7   1271811.91223        26.250           2.875
  20778000.930      607576.238 6    473435.78622        19.500           2.344
  20748342.563    -5710413.390 7  -4449670.01922        21.500           1.531
  24025851.258      887860.601 5    691838.40921         9.000           0.281
 91  6 19 20 25 30.0000000  0  4G 2G 6G13G15
  21377229.453     1730448.990 7   1284693.91223        26.750           2.938
  20780382.703      620072.379 6    483173.03622        19.750           2.250
  20741429.727    -5746741.719 7  -4477977.78922        21.250           1.531
  24028888.477      903792.818 5    704253.12321         9.250           0.281
 91  6 19 20 25 45.0000000  0  4G 2G 6G13G15
  21380388.727     1747042.763 7   1297624.10923        25.750           2.844
  20782780.625      632695.445 7    493009.18622        20.500           2.375
  20734542.633    -5782929.481 7  -4506176.03221        21.250           1.438
  24031947.047      919863.149 5    716775.43221         9.000           0.375
 91  6 19 20 26  0.0000000  0  4G 2G 6G13G15
  21383558.156     1763706.488 7   1310608.81623        26.250           2.969
  20785211.898      645453.567 7    502950.57522        20.500           2.313
  20727685.656    -5818968.209 7  -4534258.14422        21.500           1.594
  24035027.063      936079.493 5    729411.50821         8.500           0.281
 91  6 19 20 26 15.0000000  0  4G 2G 6G13G15
  21386744.141     1780433.820 7   1323643.08523        26.250           2.844
  20787660.383      658340.243 7    512992.13822        20.750           2.313
  20720853.852    -5854863.957 7  -4562228.83821        21.500           1.469
  24038141.742      952435.406 5    742156.35421         9.000           0.188
 91  6 19 20 26 30.0000000  0  4G 2G 6G13G15
  21389935.477     1797219.219 7   1336722.60623        26.000           2.781
  20790140.625      671350.162 7    523129.73322        20.500           2.219
  20714050.953    -5890622.037 7  -4590092.26722        21.750           1.500
  24041281.750      968925.256 5    755005.55921         9.500           0.219
 91  6 19 20 26 45.0000000  0  4G 2G 6G13G15
  21393141.352     1814061.619 7   1349846.54223        25.750           2.844
  20792635.188      684482.353 7    533362.60522        20.500           2.375
  20707272.297    -5926243.488 7  -4617849.22622        21.500           1.563
  24044447.266      985547.904 5    767958.26421         9.750           0.156
 91  6 19 20 27  0.0000000  0  4G 2G 6G13G15
  21396357.000     1830958.388 7   1363012.84323        26.250           2.750
  20795158.758      697734.140 7    543688.67422        20.250           2.250
  20700518.648    -5961730.712 7  -4645501.59421        21.750           1.375
  24047632.555     1002300.396 5    781012.11521         9.750           0.344
 91  6 19 20 27 15.0000000  0  3G 2G 6G13
  21399584.305     1847925.987 7   1376234.34023        26.500           2.813
  20797708.594      711122.049 7    554120.80722        20.000           2.406
  20693794.102    -5997067.297 7  -4673036.58121        21.250           1.406
 91  6 19 20 27 30.0000000  0  3G 2G 6G13
  21402825.742     1864953.871 7   1389502.81423        26.250           2.750
  20800276.383      724635.370 7    564650.65422        20.000           2.375
  20687096.961    -6032263.643 7  -4700462.29521        21.500           1.438
 91  6 19 20 27 45.0000000  0  3G 2G 6G13
  21406077.539     1882037.738 7   1402814.90423        26.250           2.781
  20802871.281      738270.057 6    575275.07322        19.750           2.344
  20680425.508    -6067323.783 7  -4727781.87021        21.500           1.438
 91  6 19 20 28  0.0000000  0  3G 2G 6G13
  21409338.234     1899181.535 7   1416173.68723        25.750           2.813
  20805492.070      752030.189 7    585997.24022        20.000           2.281
  20673779.672    -6102243.680 7  -4754992.16321        21.500           1.375
 91  6 19 20 28 15.0000000  0  3G 2G 6G13
  21412611.992     1916386.494 7   1429580.13523        26.250           2.906
  20808136.992      765916.785 7    596817.95422        20.250           2.313
  20667162.195    -6137021.940 7  -4782092.09021        21.000           1.469
 91  6 19 20 28 30.0000000  0  3G 2G 6G13
  21415896.922     1933649.307 7   1443031.66923        26.250           2.906
  20810802.016      779926.589 7    607734.67322        20.000           2.281
  20660570.289    -6171661.776 7  -4809084.16221        21.000           1.406
 91  6 19 20 28 45.0000000  0  3G 2G 6G13
  21419193.508     1950967.329 7   1456526.21823        26.250           2.781
  20813490.063      794057.074 7    618745.43022        20.000           2.313
  20654005.313    -6206165.579 7  -4835970.21521        22.000           1.469
 91  6 19 20 29  0.0000000  0  3G 2G 6G13
  21422499.602     1968354.390 7   1470074.57323        25.250           2.844
  20816205.578      808322.008 7    629860.95322        20.500           2.250
  20647466.125    -6240519.443 7  -4862739.44821        22.250           1.469
 91  6 19 20 29 15.0000000  0  3G 2G 6G13
  21425819.930     1985793.868 7   1483663.76323        25.000           2.750
  20818939.695      822704.862 7    641068.36122        20.000           2.125
  20640954.398    -6274739.708 7  -4889404.57621        22.500           1.344
 91  6 19 20 29 30.0000000  0  3G 2G 6G13
  21429149.422     2003289.423 7   1497296.64823        25.500           2.813
  20821702.516      837209.341 7    652370.54822        20.000           2.156
  20634468.688    -6308822.515 7  -4915962.59821        22.500           1.406
 91  6 19 20 29 45.0000000  0  3G 2G 6G13
  21432489.461     2020845.936 7   1510977.03523        25.750           2.875
  20824487.055      851840.322 7    663771.30222        20.500           2.156
  20628010.641    -6342763.282 7  -4942409.93222        22.000           1.531
 91  6 19 20 30  0.0000000  0  3G 2G 6G13
  21435843.156     2038464.400 7   1524705.70223        25.500           2.938
  20827293.500      866598.680 7    675271.31322        20.500           2.188
  20621579.391    -6376560.708 7  -4968745.58321        21.750           1.469
 91  6 19 20 30 15.0000000  0  3G 2G 6G13
  21439207.398     2056132.186 7   1538472.79223        26.000           2.844
  20830122.680      881472.007 7    686860.90922        20.000           2.188
  20615172.125    -6410227.246 7  -4994979.23922        21.500           1.531
 91  6 19 20 30 30.0000000  0  3G 2G 6G13
  21442580.414     2073855.882 7   1552283.44823        26.250           2.813
  20832973.742      896466.821 6    698545.16822        19.750           2.250
  20608792.125    -6443756.065 7  -5021105.57521        21.250           1.469
 91  6 19 20 30 45.0000000  0  3G 2G 6G13
  21445960.539     2091635.341 7   1566137.57423        25.750           2.656
  20835853.383      911583.090 6    710324.07522        19.750           2.156
  20602437.797    -6477147.173 7  -5047124.60922        21.750           1.531
 91  6 19 20 31  0.0000000  0  3G 2G 6G13
  21449354.867     2109471.892 7   1580036.17523        25.250           2.750
  20838754.703      926822.171 7    722198.66622        20.250           2.250
  20596109.734    -6510399.169 7  -5073035.24022        21.750           1.500
 91  6 19 20 31 15.0000000  0  3G 2G 6G13
  21452762.273     2127364.569 7   1593978.49823        25.250           2.844
  20841672.758      942182.997 7    734168.12622        20.000           2.281
  20589808.063    -6543512.708 7  -5098837.98422        22.500           1.563
 91  6 19 20 31 30.0000000  0  3G 2G 6G13
  21456175.383     2145311.208 7   1607962.87623        25.750           2.688
  20844623.813      957663.520 6    746230.85622        19.750           2.250
  20583533.578    -6576489.922 7  -5124534.49621        22.500           1.469
 91  6 19 20 31 45.0000000  0  3G 2G 6G13
  21459603.383     2163320.780 7   1621996.29923        25.500           2.719
  20847589.891      973272.621 7    758393.78022        20.000           2.344
  20577285.641    -6609321.877 7  -5150117.82821        22.750           1.438
 91  6 19 20 32  0.0000000  0  3G 2G 6G13
  21463039.648     2181383.338 7   1636071.00923        25.500           2.719
  20850585.234      989000.372 7    770649.15622        20.000           2.344
  20571064.477    -6642018.133 7  -5175595.41922        23.250           1.563
 91  6 19 20 32 15.0000000  0  3G 2G 6G13
  21466490.344     2199506.472 7   1650192.91823        25.750           2.750
  20853601.570     1004854.528 7    783003.03222        20.250           2.344
  20564871.063    -6674570.938 7  -5200961.23121        22.750           1.438
 91  6 19 20 32 30.0000000  0  4G 2G 6G13G12
  21469945.156     2217680.862 7   1664354.76523        25.500           2.688
  20856643.273     1020825.564 7    795447.98122        20.000           2.281
  20558701.008    -6706989.733 7  -5226222.61522        23.000           1.500
  24048138.570          -0.20215                         9.000
 91  6 19 20 32 45.0000000  0  4G 2G 6G13G12
  21473417.305     2235911.286 7   1678560.27323        25.250           2.719
  20859701.930     1036918.372 7    807987.81822        20.500           2.188
  20552557.836    -6739269.788 7  -5251375.89522        23.250           1.531
  24037559.445      -55605.231 5                         8.750
 91  6 19 20 33  0.0000000  0  4G 2G 6G13G12
  21476897.086     2254199.490 7   1692810.80723        25.500           2.844
  20862790.750     1053134.826 7    820624.00822        20.250           2.063
  20546441.852    -6771408.778 7  -5276419.25322        23.000           1.531
  24026982.125     -111198.599 5                         8.750
 91  6 19 20 33 15.0000000  0  4G 2G 6G13G12
  21480383.992     2272544.456 7   1707105.56923        24.500           2.813
  20865899.266     1069473.937 7    833355.77522        20.000           2.219
  20540351.438    -6803407.795 7  -5301353.53822        22.750           1.625
  24016403.406     -166781.064 5                         9.250
 91  6 19 20 33 30.0000000  0  4G 2G 6G13G12
  21483888.430     2290942.483 7   1721441.67223        24.250           2.719
  20869029.313     1085931.886 7    846180.13822        20.500           2.188
  20534289.578    -6835270.267 7  -5326181.43222        23.000           1.500
  24005826.680     -222356.135 5                         9.250
 91  6 19 20 33 45.0000000  0  4G 2G 6G13G12
  21487402.992     2309392.447 7   1735818.24723        26.000           2.750
  20872182.250     1102507.452 6    859096.14822        19.750           2.156
  20528251.914    -6866997.494 7  -5350903.93322        22.750           1.531
  23995250.375     -277924.686 5                         9.250
 91  6 19 20 34  0.0000000  0  4G 2G 6G13G12
  21490922.352     2327899.189 7   1750239.07823        25.750           2.781
  20875361.867     1119205.667 6    872107.73422        19.750           2.250
  20522240.773    -6898584.604 7  -5375517.25022        23.000           1.500
  23984676.000     -333481.569 5        -0.04131         8.500           0.313
 91  6 19 20 34 15.0000000  0  4G 2G 6G13G12
  21494452.367     2346462.529 7   1764703.99023        25.250           2.594
  20878565.578     1136026.282 6    885214.68922        19.750           2.156
  20516256.805    -6930031.184 7  -5400021.07022        23.000           1.625
  23974107.719     -389026.850 5    -43282.04021         8.500           0.313
 91  6 19 20 34 30.0000000  0  4G 2G 6G13G12
  21497995.344     2365082.565 7   1779213.09923        25.750           2.500
  20881790.445     1152969.450 6    898417.14122        19.500           2.188
  20510300.430    -6961337.284 7  -5424415.42422        23.250           1.625
  23963542.578     -444560.143 5    -86554.69321         8.500           0.313
 91  6 19 20 34 45.0000000  0  4G 2G 6G13G12
  21501550.125     2383761.273 7   1793767.92323        25.250           2.531
  20885037.148     1170037.066 6    911716.57922        19.500           2.250
  20504369.336    -6992500.866 7  -5448698.72122        23.250           1.594
  23952977.227     -500079.334 5   -129816.37121         8.500           0.250
 91  6 19 20 35  0.0000000  0  4G 2G 6G13G12
  21505116.031     2402498.325 7   1808368.20523        25.500           2.563
  20888309.875     1187228.901 7    925112.79522        20.250           2.219
  20498467.109    -7023522.029 7  -5472871.04422        23.250           1.625
  23942418.055     -555584.271 5   -173066.93921         8.000           0.281
 91  6 19 20 35 15.0000000  0  4G 2G 6G13G12
  21508692.125     2421289.945 7   1823011.00923        25.500           2.594
  20891605.031     1204541.192 7    938602.87522        20.500           2.281
  20492590.039    -7054404.382 7  -5496935.19922        23.250           1.688
  23931851.500     -611078.477 5   -216309.13821         8.250           0.250
 91  6 19 20 35 30.0000000  0  4G 2G 6G13G12
  21512279.203     2440141.045 7   1837700.15723        25.250           2.688
  20894921.320     1221978.819 7    952190.62622        20.000           2.219
  20486741.008    -7085142.785 7  -5520887.19022        23.750           1.563
  23921295.211     -666556.709 5   -259538.89221         8.500           0.313
 91  6 19 20 35 45.0000000  0  4G 2G 6G13G12
  21515878.492     2459047.381 7   1852432.34423        25.000           2.656
  20898262.430     1239537.498 7    965872.70522        20.250           2.188
  20480918.820    -7115741.638 7  -5544730.43922        24.000           1.594
  23910743.148     -722023.071 5   -302759.39321         8.500           0.281
 91  6 19 20 36  0.0000000  0  4G 2G 6G13G12
  21519490.281     2478018.153 7   1867214.74323        25.250           2.594
  20901626.797     1257226.420 7    979656.26622        20.500           2.250
  20475122.383    -7146191.633 7  -5568457.70422        23.500           1.594
  23900190.891     -777468.065 5   -345963.23921         8.750           0.313
 91  6 19 20 36 15.0000000  0  4G 2G 6G13G12
  21523108.508     2497044.746 7   1882040.65123        24.000           2.594
  20905015.250     1275037.116 7    993534.71922        20.750           2.188
  20469354.820    -7176501.239 7  -5592075.56322        23.750           1.594
  23889644.219     -832899.972 5   -389156.89921         9.250           0.313
 91  6 19 20 36 30.0000000  0  4G 2G 6G13G12
  21526740.234     2516128.202 7   1896910.85322        25.250           2.469
  20908430.898     1292970.490 7   1007508.76722        20.500           2.250
  20463614.773    -7206669.176 7  -5615583.04122        23.500           1.594
  23879093.750     -888317.578 5   -432339.41821         9.000           0.281
 91  6 19 20 36 45.0000000  0  4G 2G 6G13G12
  21530382.344     2535272.442 7   1911828.43723        24.750           2.656
  20911868.125     1311030.452 7   1021581.44822        20.500           2.219
  20457900.781    -7236691.527 7  -5638977.06522        23.750           1.500
  23868552.148     -943716.810 5   -475507.62321         9.000           0.375
 91  6 19 20 36 59.9990000  0  4G 2G 6G13G12
  21534037.081     2554474.561 7   1926791.11523        23.750           2.563
  20915322.698     1329214.145 6   1035750.54622        19.750           2.188
  20452215.745    -7266567.883 7  -5662257.33222        23.750           1.656
  23858020.097     -999095.229 5   -518659.63421         9.750           0.344
 91  6 19 20 37 14.9990000  0  4G 2G 6G13G12
  21537700.894     2573732.859 7   1941797.55222        24.500           2.469
  20918811.964     1347519.750 7   1050014.64422        20.000           2.281
  20446556.472    -7296306.452 7  -5685430.23322        23.500           1.594
  23847482.245    -1054464.260 5   -561804.26621        10.000           0.281
 91  6 19 20 37 29.9990000  0  4G 2G 6G13G12
  21541377.339     2593047.653 7   1956848.02723        24.000           2.531
  20922315.722     1365947.486 6   1064373.90622        19.750           2.156
  20440924.331    -7325903.711 7  -5708493.02522        23.750           1.688
  23836947.222    -1109818.416 5   -604937.36821        10.000           0.313
 91  6 19 20 37 44.9990000  0  4G 2G 6G13G12
  21545064.386     2612423.148 7   1971945.79723        24.750           2.594
  20925847.011     1384501.769 6   1078831.77922        19.250           2.188
  20435319.581    -7355355.179 7  -5731442.20122        23.500           1.625
  23826417.589    -1165153.133 5   -648055.30021        10.000           0.313
 91  6 19 20 37 59.9990000  0  4G 2G 6G13G12
  21548761.956     2631850.129 7   1987083.68223        24.750           2.719
  20929401.065     1403173.178 6   1093380.91222        19.250           2.125
  20429740.612    -7384669.781 7  -5754284.74122        23.250           1.500
  23815887.706    -1220477.453 5   -691165.10021        10.000           0.344
 91  6 19 20 38 14.9990000  0  4G 2G 6G13G12
  21552467.730     2651340.114 7   2002270.67023        23.250           2.656
  20932979.605     1421973.639 6   1108030.61422        19.500           2.156
  20424192.683    -7413835.639 7  -5777011.36922        24.250           1.656
  23805365.378    -1275779.439 5   -734257.54621        10.250           0.281
 91  6 19 20 38 29.9990000  0  4G 2G 6G13G12
  21556193.323     2670891.774 7   2017505.70423        25.000           2.531
  20936577.190     1440901.474 6   1122779.55322        19.000           2.063
  20418670.222    -7442854.507 7  -5799623.46222        23.750           1.625
  23794847.144    -1331060.271 5   -777333.48821        10.250           0.250
 91  6 19 20 38 44.9990000  0  4G 2G 6G13G12
  21559921.331     2690496.271 7   2032781.91823        25.000           2.500
  20940206.511     1459947.621 6   1137620.69522        19.500           2.156
  20413174.175    -7471735.135 7  -5822127.83922        23.750           1.625
  23784329.550    -1386328.645 5   -820399.73921         9.750           0.344
 91  6 19 20 38 59.9990000  0  4G 2G 6G13G12
  21563661.980     2710156.749 7   2048101.75723        24.000           2.563
  20943850.331     1479115.527 6   1152556.71622        19.500           2.031
  20407703.698    -7500474.299 7  -5844521.98222        24.250           1.688
  23773813.862    -1441581.133 5   -863453.56621         9.500           0.281
 91  6 19 20 39 14.9990000  0  4G 2G 6G13G12
  21567417.440     2729882.946 7   2063472.79422        24.750           2.469
  20947521.198     1498414.832 6   1167595.11422        19.500           2.031
  20402264.737    -7529062.065 7  -5866798.15222        24.000           1.656
  23763307.464    -1496807.478 5   -906487.05221         9.500           0.313
 91  6 19 20 39 29.9990000  0  4G 2G 6G13G12
  21571181.097     2749671.044 7   2078892.08322        24.000           2.313
  20951221.659     1517841.766 6   1182732.97622        19.500           2.031
  20396851.972    -7557502.266 7  -5888959.33622        24.250           1.531
  23752798.745    -1552011.364 5   -949503.03921         9.500           0.281
 91  6 19 20 39 44.9990000  0  4G 2G 6G13G12
  21574955.737     2769513.095 7   2094353.39623        24.000           2.563
  20954941.378     1537388.245 6   1197963.98922        19.500           2.125
  20391466.972    -7585802.570 7  -5911011.51222        24.250           1.594
  23742293.815    -1607200.546 5   -992507.58121         9.250           0.281
 91  6 19 20 39 59.9990000  0  4G 2G 6G13G12
  21578741.980     2789404.728 7   2109853.34422        25.000           2.469
  20958684.222     1557049.749 6   1213284.63022        19.750           2.094
  20386106.620    -7613967.550 7  -5932958.24122        24.250           1.594
  23731797.042    -1662379.155 5  -1035503.86821         8.750           0.344
 91  6 19 20 40 14.9990000  0  4G 2G 6G13G12
  21582538.292     2809353.788 7   2125398.05222        24.000           2.250
  20962446.003     1576834.345 6   1228701.17922        19.500           2.031
  20380775.839    -7641989.055 7  -5954793.16822        24.500           1.563
  23721299.276    -1717538.880 5  -1078485.42821         8.750           0.344
 91  6 19 20 40 29.9990000  0  4G 2G 6G13G12
  21586347.589     2829362.934 7                        24.500
  20966234.659     1596744.723 6                        19.250
  20375470.792    -7669864.273 7  -5976514.11322        24.500           1.594
  23710808.565    -1772676.760 5  -1121449.98621         9.250           0.250
 91  6 19 20 40 44.9990000  0  4G 2G 6G13G12
  21590166.401     2849429.862 7                        24.250
  20970044.464     1616778.438 6                        18.500
  20370193.511    -7697595.663 7  -5998122.97722        24.750           1.656
  23700321.081    -1827795.064 5  -1164399.29021        10.000           0.281
 91  6 19 20 40 59.9990000  0  4G 2G 6G13G12
  21593995.761     2869558.362 7                        24.250
  20973884.534     1636939.152 6                        19.250
  20364944.737    -7725179.265 7  -6019616.68122        24.500           1.625
  23689835.003    -1882889.781 5  -1207330.21421         9.750           0.313
 91  6 19 20 41 14.9990000  0  4G 2G 6G13G12
  21597837.339     2889744.441 7   2188040.04022        24.750           2.313
  20977743.198     1657223.017 6   1291341.63522        18.250           2.188
  20359723.925    -7752618.759 7  -6040998.09722        24.500           1.531
  23679352.612    -1937964.402 5  -1250245.47021        10.250           0.344
 91  6 19 20 41 29.9990000  0  4G 2G 6G13G12
  21601689.722     2909990.279 7   2203815.99422        25.000           2.219
  20981628.855     1677631.972 6   1307244.69922        18.500           2.031
  20354529.433    -7779912.194 7  -6062265.70022        24.500           1.625
  23668879.315    -1993016.627 5  -1293143.28021        10.000           0.375
 91  6 19 20 41 44.9990000  0  4G 2G 6G13G12
  21605551.355     2930294.166 7   2219637.20022        23.750           2.219
  20985537.284     1698164.510 6   1323244.06322        19.250           2.094
  20349362.901    -7807061.093 7  -6083420.67922        24.750           1.594
  23658408.761    -2048047.597 5  -1336024.52421         9.750           0.344
 91  6 19 20 41 59.9990000  0  4G 2G 6G13G12
  21609428.933     2950656.789 7   2235504.15622        24.750           2.219
  20989467.167     1718821.343 6   1339340.28322        18.750           2.063
  20344224.737    -7834064.606 7  -6104462.36422        24.500           1.688
  23647938.026    -2103056.438 5  -1378888.51521         9.500           0.344
 91  6 19 20 42 14.9990000  0  4G 2G 6G13G12
  21613316.855     2971079.222 7   2251417.72122        24.750           2.375
  20993418.565     1739603.470 6   1355534.12922        19.250           2.000
  20339114.042    -7860921.579 7  -6125389.86922        24.500           1.625
  23637479.175    -2158041.804 5  -1421734.22521         9.750           0.375
 91  6 19 20 42 29.9990000  0  4G 2G 6G13G12
  21617212.901     2991556.753 7   2267374.21422        24.500           2.219
  20997395.026     1760505.923 6   1371821.74222        18.750           2.156
  20334030.550    -7887636.808 7  -6146206.92322        24.500           1.688
  23627017.706    -2213008.298 5  -1464565.24521        10.500           0.406
 91  6 19 20 42 44.9990000  0  4G 2G 6G13G12
  21621118.370     3012092.801 7   2283376.30822        24.000           2.281
  21001402.269     1781532.172 6   1388205.82422        19.750           2.125
  20328974.972    -7914206.944 7  -6166910.91622        24.500           1.656
  23616560.565    -2267952.226 5  -1507378.66221        10.250           0.344
 91  6 19 20 42 59.9990000  0  4G 2G 6G13G12
  21625041.980     3032692.215 7   2299427.77622        24.000           2.281
  21005424.128     1802686.956 6   1404690.05322        19.750           2.094
  20323945.831    -7940627.012 7  -6187497.97222        24.750           1.688
  23606113.519    -2322868.585 5  -1550170.60221        10.000           0.250
 91  6 19 20 43 14.9990000  0  4G 2G 6G13G12
  21628967.901     3053349.323 7   2315524.21122        23.000           2.406
  21009474.644     1823964.790 6   1421270.17222        19.500           1.969
  20318946.237    -7966902.474 7  -6207972.35022        24.750           1.688
  23595666.589    -2377762.597 5  -1592945.13621        10.250           0.406
 91  6 19 20 43 29.9990000  0  4G 2G 6G13G12
  21632911.253     3074056.623 7   2331659.73822        23.750           2.281
  21013544.073     1845357.956 6   1437940.16222        19.000           2.031
  20313973.026    -7993040.898 7  -6228339.94622        25.250           1.625
  23585223.167    -2432641.444 5  -1635707.82821        10.000           0.406
 91  6 19 20 43 44.9990000  0  4G 2G 6G13G12
  21636863.331     3094825.949 7   2347843.60622        24.000           2.344
  21017638.964     1866878.130 6   1454709.10922        19.250           2.094
  20309027.909    -8019030.427 7  -6248591.51322        25.500           1.656
  23574780.628    -2487493.139 5  -1678449.37621         9.500           0.281
 91  6 19 20 43 59.9990000  0  4G 2G 6G13G12
  21640825.386     3115648.276 7   2364068.77722        23.750           2.250
  21021759.511     1888516.457 6   1471570.13422        19.750           2.094
  20304107.386    -8044879.834 7  -6268733.89922        25.250           1.688
  23564351.276    -2542326.402 5  -1721176.57221         9.500           0.344
 91  6 19 20 44 14.9990000  0  4G 2G 6G13G12
  21644795.026     3136521.746 7   2380333.80222        23.000           2.125
  21025899.089     1910271.047 6   1488521.74922        19.250           2.063
  20299215.503    -8070590.965 7  -6288768.54022        25.500           1.594
  23553918.464    -2597142.703 5  -1763890.52321         9.500           0.375
 91  6 19 20 44 29.9990000  0  4G 2G 6G13G12
  21648782.940     3157454.151 7   2396644.74222        24.500           2.250
  21030058.558     1932149.806 6   1505570.11822        19.000           2.031
  20294350.722    -8096156.076 7  -6308689.39322        25.250           1.625
  23543492.308    -2651933.912 5  -1806584.94121         9.500           0.344
 91  6 19 20 44 44.9990000  0  4G 2G 6G13G12
  21652773.722     3178442.990 7   2412999.65922        24.250           2.281
  21034248.690     1954149.861 6   1522712.99522        19.000           2.156
  20289512.284    -8121577.366 7  -6328498.18222        25.000           1.688
  23533070.753    -2706702.442 5  -1849261.68121         9.750           0.375
 91  6 19 20 44 59.9990000  0  4G 2G 6G13G12
  21656779.542     3199489.036 7   2429399.15622        24.500           2.344
  21038456.761     1976272.251 6   1539951.19622        19.000           2.094
  20284701.917    -8146853.950 7  -6348194.21622        25.000           1.656
  23522653.292    -2761447.035 5  -1891919.80021         9.500           0.313
 91  6 19 20 45 14.9990000  0  4G 2G 6G13G12
  21660797.237     3220597.059 7   2445846.95722        23.250           2.281
  21042689.315     1998521.485 6   1557288.25022        19.250           2.063
  20279922.308    -8171981.192 7  -6367773.87822        25.750           1.594
  23512240.292    -2816162.847 5  -1934555.45921         8.750           0.281
 91  6 19 20 45 29.9990000  0  4G 2G 6G13G12
  21664825.737     3241762.701 7   2462339.63522        24.250           2.344
  21046949.011     2020893.144 6   1574720.69422        19.500           2.094
  20275167.972    -8196963.585 7  -6387240.66622        25.500           1.594
  23501832.620    -2870854.003 5  -1977171.90821         9.000           0.406
 91  6 19 20 45 44.9990000  0  4G 2G 6G13G12
  21668862.003     3262982.007 7   2478874.14222        24.000           2.438
  21051230.612     2043383.453 6   1592245.59822        19.750           2.063
  20270439.987    -8221804.867 7  -6406597.50322        25.250           1.625
  23491431.144    -2925523.988 5  -2019771.86121         9.500           0.344
 91  6 19 20 45 59.9990000  0  4G 2G 6G13G12
  21672909.300     3284258.288 7   2495453.03422        23.250           2.344
  21055533.190     2065995.561 6   1609865.40722        19.500           2.000
  20265740.526    -8246501.707 7  -6425841.78622        25.750           1.563
  23481030.558    -2980169.220 5  -2062352.52421         9.500           0.406
 91  6 19 20 46 14.9990000  0  4G 2G 6G13G12
  21676968.855     3305586.950 7   2512072.75222        24.000           2.406
  21059857.980     2088724.592 6   1627576.33122        19.750           1.938
  20261067.144    -8271058.881 7  -6444977.23822        25.500           1.625
  23470636.167    -3034794.144 5  -2104917.37421         9.250           0.438
 91  6 19 20 46 29.9990000  0  4G 2G 6G13G12
  21681039.081     3326969.270 7   2528734.26922        24.250           2.219
  21064205.190     2111571.841 6   1645379.36122        19.250           1.969
  20256420.823    -8295474.880 7  -6464002.68522        25.500           1.688
  23460246.573    -3089397.154 5  -2147465.14021         9.500           0.438
 91  6 19 20 46 44.9990000  0  4G 2G 6G13G12
  21685118.612     3348408.922 7   2545440.48222        24.250           2.188
  21068576.409     2134541.316 6   1663277.64722        19.500           1.906
  20251802.972    -8319745.725 7  -6482915.02422        25.250           1.656
  23449858.206    -3143974.137 5  -2189992.63121         9.000           0.469
 91  6 19 20 46 59.9990000  0  4G 2G 6G13G12
  21689209.855     3369905.018 7   2562190.66722        24.750           2.188
  21072971.362     2157631.754 6   1681270.18922        19.250           1.969
  20247211.120    -8343872.534 7  -6501715.12822        25.000           1.594
  23439480.480    -3198525.792 5  -2232500.37321         9.250           0.406
 91  6 19 20 47 14.9990000  0  4G 2G 6G13G12
  21693309.315     3391452.858 7   2578981.18222        24.000           2.344
  21077387.480     2180838.447 6   1699353.31122        19.250           1.906
  20242646.800    -8367859.901 7  -6520406.57522        25.000           1.750
  23429104.050    -3253056.649 5  -2274991.92421         9.750           0.469
 91  6 19 20 47 29.9990000  0  4G 2G 6G13G12
  21697420.925     3413059.816 7   2595817.73822        23.250           2.375
  21081824.956     2204168.706 6   1717532.71622        19.500           2.031
  20238110.480    -8391700.303 7  -6538983.50122        25.000           1.656
  23418731.417    -3307558.996 5  -2317461.24921         9.500           0.469
 91  6 19 20 47 44.9990000  0  4G 2G 6G13G12
  21701541.987     3434721.269 7   2612696.76422        22.250           2.313
  21086287.815     2227617.909 7   1735804.80722        20.000           1.906
  20233600.667    -8415398.561 7  -6557449.67122        25.250           1.563
  23408364.315    -3362037.282 5  -2359911.83521        10.000           0.406
 91  6 19 20 47 59.9990000  0  4G 2G 6G13G12
  21705678.761     3456435.419 7   2629616.86422        24.000           2.156
  21090770.394     2251183.970 6   1754167.95622        19.500           2.000
  20229117.042    -8438956.499 7  -6575806.49122        24.250           1.594
  23398004.519    -3416493.055 5  -2402344.87921        10.750           0.313
 91  6 19 20 48 14.9990000  0  4G 2G 6G13G12
  21709817.073     3478208.228 7   2646582.68122        22.500           2.219
  21095279.573     2274872.829 6   1772626.79022        19.500           1.969
  20224662.261    -8462368.175 7  -6594049.35122        24.750           1.656
  23387642.323    -3470919.980 5  -2444755.43221        10.750           0.469
 91  6 19 20 48 29.9990000  0  4G 2G 6G13G12
  21713971.198     3500036.099 7   2663591.38622        23.000           2.156
  21099812.159     2298681.064 6   1791178.63322        19.250           2.000
  20220234.245    -8485636.793 7  -6612180.73322        24.750           1.719
  23377291.144    -3525321.229 5  -2487145.98021        10.750           0.500
 91  6 19 20 48 44.9990000  0  4G 2G 6G13G12
  21718135.886     3521916.252 7   2680640.82822        22.250           2.063
  21104361.511     2322605.748 6   1809821.22422        19.000           2.031
  20215833.581    -8508765.301 7  -6630202.93922        25.250           1.688
  23366940.167    -3579699.254 5  -2529518.43321        10.750           0.469
 91  6 19 20 48 59.9990000  0  4G 2G 6G13G12
  21722309.792     3543845.364 7   2697728.42622        22.750           2.125
  21108936.651     2346643.583 6   1828551.98722        19.250           2.000
  20211457.964    -8531756.835 7  -6648118.41422        25.000           1.563
  23356599.386    -3634057.221 5  -2571875.26021        11.000           0.406
 91  6 19 20 49 14.9990000  0  4G 2G 6G13G12
  21726492.706     3565830.931 7   2714860.02222        22.750           1.969
  21113535.980     2370801.810 6   1847376.56222        19.500           2.031
  20207109.917    -8554603.942 7  -6665921.34622        24.750           1.563
  23346260.269    -3688387.260 5  -2614210.32821        11.500           0.406
 91  6 19 20 49 29.9990000  0  4G 2G 6G13G12
  21730689.034     3587874.175 7   2732036.56622        22.500           2.188
  21118153.495     2395081.620 6   1866295.88022        19.750           2.031
  20202790.026    -8577305.585 7  -6683610.93022        24.750           1.625
  23335928.269    -3742688.016 5  -2656522.58621        11.500           0.469
 91  6 19 20 49 44.9990000  0  4G 2G 6G13G12
  21734891.386     3609971.139 7   2749254.95422        22.000           2.188
  21122799.253     2419479.193 7   1885306.97022        20.250           1.938
  20198497.737    -8599865.486 7  -6701190.06822        25.250           1.500
  23325598.011    -3796962.960 5  -2698814.71521        11.500           0.406
 91  6 19 20 49 59.9990000  0  4G 2G 6G13G12
  21739107.558     3632119.942 7   2766513.74222        21.000           2.094
  21127460.644     2443992.349 7   1904408.10722        20.250           2.031
  20194231.198    -8622285.565 7  -6718660.25122        25.500           1.563
  23315277.292    -3851213.706 5  -2741087.98821        11.750           0.469
 91  6 19 20 50 14.9990000  0  4G 2G 6G13G12
  21743332.331     3654320.633 7   2783812.95422        22.250           2.219
  21132148.753     2468621.281 7   1923599.45422        20.000           1.969
  20189992.355    -8644565.571 7  -6736021.28622        25.250           1.500
  23304959.855    -3905439.961 5  -2783342.17321        11.750           0.375
 91  6 19 20 50 29.9990000  0  4G 2G 6G13G12
  21747563.480     3676568.945 7   2801149.27522        21.000           1.906
  21136856.253     2493361.619 7   1942877.61822        20.250           1.938
  20185777.370    -8666709.749 7  -6753276.47822        25.250           1.531
  23294643.480    -3959645.568 6  -2825580.28821        12.000           0.375
 91  6 19 20 50 44.9990000  0  4G 2G 6G13G12
  21751812.503     3698876.187 7   2818531.53222        22.000           1.969
  21141585.339     2518224.507 6   1962251.28522        19.750           1.875
  20181591.800    -8688707.208 7  -6770417.35022        25.250           1.594
  23284335.003    -4013819.131 6  -2867793.43021        12.250           0.531
 91  6 19 20 50 59.9990000  0  4G 2G 6G13G12
  21756066.222     3721239.001 7   2835957.07422        22.250           1.938
  21146343.987     2543206.345 6   1981717.64722        19.750           1.938
  20177431.714    -8710561.280 7  -6787446.48922        25.250           1.594
  23274030.409    -4067963.828 6  -2909984.06321        12.000           0.469
 91  6 19 20 51 14.9990000  0  4G 2G 6G13G12
  21760328.909     3743649.786 7   2853420.00922        22.500           2.031
  21151118.136     2568299.611 6   2001270.81822        19.250           1.938
  20173300.565    -8732279.359 7  -6804369.66322        25.500           1.531
  23263731.183    -4122086.734 5  -2952157.71721        11.750           0.500
 91  6 19 20 51 29.9990000  0  4G 2G 6G13G12
  21764605.175     3766106.578 7   2870918.78522        23.250           2.000
  21155910.987     2593502.355 6   2020909.30022        18.750           1.906
  20169193.276    -8753863.450 7  -6821188.42622        25.250           1.500
  23253434.136    -4176189.532 5  -2994315.72121        11.750           0.531
 91  6 19 20 51 44.9990000  0  4G 2G 6G13G12
  21768889.050     3788615.031 7   2888457.82222        23.250           2.031
  21160728.323     2618820.103 6   2040637.39322        19.000           1.875
  20165112.097    -8775307.672 7  -6837898.20321        25.000           1.438
  23243145.620    -4230266.165 6  -3036453.31621        12.000           0.469
 91  6 19 20 51 59.9990000  0  4G 2G 6G13G12
  21773180.722     3811170.886 7   2906033.80122        22.500           2.000
  21165567.956     2644248.558 6   2060451.75122        19.000           1.844
  20161056.073    -8796616.199 7  -6854502.24021        25.250           1.469
  23232857.190    -4284320.700 5  -3078573.70221        11.750           0.500
 91  6 19 20 52 14.9990000  0  4G 2G 6G13G12
  21777483.409     3833782.494 7   2923653.20022        23.000           2.063
  21170431.558     2669796.100 6   2080358.90622        19.250           1.906
  20157029.620    -8817780.947 7  -6870994.24622        25.000           1.563
  23222578.503    -4338344.567 6  -3120670.18521        12.000           0.531
 91  6 19 20 52 29.9990000  0  4G 2G 6G13G12
  21781794.355     3856439.420 7   2941307.93922        23.000           1.969
  21175312.628     2695451.825 6   2100350.35922        19.000           1.969
  20153026.605    -8838812.336 7  -6887382.33121        24.750           1.469
  23212303.159    -4392347.919 6  -3162750.68821        12.250           0.375
 91  6 19 20 52 44.9990000  0  4G 2G 6G13G12
  21786115.464     3879145.656 7   2959001.09122        23.250           2.219
  21180217.433     2721220.100 6   2120429.51722        19.250           1.906
  20149050.956    -8859706.010 7  -6903663.11522        25.000           1.563
  23202029.480    -4446326.283 6  -3204811.73421        12.000           0.469
 91  6 19 20 52 59.9990000  0  4G 2G 6G13G12
  21790446.190     3901904.856 7   2976735.50622        23.750           2.063
  21185143.065     2747104.198 6   2140598.93222        19.250           2.000
  20145103.644    -8880458.482 7  -6919833.86322        25.250           1.563
  23191763.870    -4500275.823 5  -3246850.31521        11.500           0.500
 91  6 19 20 53 14.9990000  0  4G 2G 6G13G12
  21794788.558     3924719.285 7   2994512.96722        23.500           2.125
  21190089.800     2773106.322 6   2160860.30322        19.750           1.969
  20141181.245    -8901067.560 7  -6935892.87922        25.250           1.531
  23181501.261    -4554193.967 5  -3288864.42721        11.500           0.500
 91  6 19 20 53 29.9990000  0  4G 2G 6G13G12
  21799140.058     3947585.004 7   3012330.37822        22.500           2.094
  21195058.284     2799222.648 7   2181210.66222        20.000           1.844
  20137284.808    -8921537.187 7  -6951843.23022        25.250           1.563
  23171249.636    -4608084.244 5  -3330856.80821        11.250           0.563
 91  6 19 20 53 44.9990000  0  4G 2G 6G13G12
  21803501.011     3970502.546 7   3030188.19522        22.750           2.094
  21200049.503     2825453.397 6   2201650.18922        19.500           2.000
  20133416.464    -8941866.934 7  -6967684.58622        25.500           1.500
  23160998.222    -4661946.000 5  -3372826.97921        11.500           0.563
 91  6 19 20 53 59.9990000  0  4G 2G 6G13G12
  21807870.769     3993471.339 7   3048085.92522        23.000           2.125
  21205063.714     2851798.032 6   2222178.46022        19.250           1.969
  20129575.097    -8962057.435 7  -6983417.43621        25.750           1.469
  23150755.237    -4715779.598 5  -3414775.20721        11.750           0.500
 91  6 19 20 54 14.9990000  0  4G 2G 6G13G12
  21812249.394     4016493.610 7   3066025.34322        22.250           2.125
  21210100.534     2878258.717 6   2242797.15522        19.500           1.938
  20125759.167    -8982106.319 7  -6999039.93221        25.750           1.469
  23140516.769    -4769582.336 6  -3456699.41221        12.000           0.594
 91  6 19 20 54 29.9990000  0  4G 2G 6G13G12
  21816642.862     4039567.805 7   3084005.20622        22.750           1.781
  21215157.995     2904833.753 6   2263504.94822        19.750           1.938
  20121970.487    -9002015.116 7  -7014553.28021        25.500           1.469
  23130285.964    -4823355.471 6  -3498600.51921        12.250           0.563
 91  6 19 20 54 44.9990000  0  4G 2G 6G13G12
  21821042.847     4062688.500 7   3102021.31922        22.750           1.844
  21220232.394     2931517.695 6   2284297.60722        19.000           1.813
  20118207.776    -9021789.195 7  -7029961.64621        26.000           1.438
  23120055.308    -4877104.080 5  -3540482.51921        11.750           0.688
 91  6 19 20 54 59.9990000  0  4G 2G 6G13G12
  21825449.175     4085856.315 7   3120074.14522        22.000           1.844
  21225335.183     2958311.023 6   2305175.49822        18.750           1.875
  20114470.112    -9041427.963 7  -7045264.57421        26.000           1.375
  23109832.167    -4930827.216 6  -3582344.66521        12.250           0.563
 91  6 19 20 55 14.9990000  0  4G 2G 6G13G12
  21829869.230     4109072.697 7   3138164.80822        22.000           1.750
  21230452.190     2985215.142 6   2326139.73022        18.750           1.844
  20110760.534    -9060930.148 7  -7060461.07921        26.500           1.406
  23099614.308    -4984523.208 6  -3624185.68121        12.000           0.531
 91  6 19 20 55 29.9990000  0  4G 2G 6G13G12
  21834295.831     4132338.059 7   3156293.64622        22.000           1.875
  21235593.667     3012230.258 6   2347190.44622        18.500           1.813
  20107074.972    -9080295.467 7  -7075550.93321        26.500           1.344
  23089400.948    -5038191.398 6  -3666005.01821        12.250           0.563
 91  6 19 20 55 44.9990000  0  4G 2G 6G13G12
  21838733.519     4155654.759 7   3174462.46922        22.750           1.844
  21240758.769     3039358.860 6   2368329.59322        19.000           1.844
  20103416.065    -9099521.124 7  -7090531.96121        26.000           1.344
  23079193.261    -5091828.924 6  -3707800.46221        12.250           0.625
 91  6 19 20 55 59.9990000  0  4G 2G 6G13G12
  21843179.722     4179022.887 7   3192671.37422        22.500           1.781
  21245938.987     3066600.940 6   2389557.16422        18.750           1.781
  20099784.823    -9118606.971 7  -7105404.04221        26.250           1.438
  23068993.714    -5145435.356 6  -3749571.68921        12.500           0.656
 91  6 19 20 56 14.9990000  0  4G 2G 6G13G12
  21847638.175     4202442.540 7   3210920.44222        22.250           1.750
  21251146.276     3093956.354 6   2410873.05422        18.750           1.781
  20096179.198    -9137553.255 7  -7120167.37521        26.250           1.219
  23058798.761    -5199010.537 6  -3791318.55521        12.500           0.500
 91  6 19 20 56 29.9990000  0  4G 2G 6G13G12
  21852102.675     4225916.216 7   3229211.59022        22.000           1.719
  21256374.230     3121427.620 6   2432279.21122        18.750           1.813
  20092600.448    -9156357.480 7  -7134820.01021        26.000           1.469
  23048610.597    -5252551.576 6  -3833038.81321        12.750           0.500
 91  6 19 20 56 44.9990000  0  4G 2G 6G13G12
  21856581.370     4249441.441 7   3247542.91322        21.250           1.563
  21261620.769     3149012.144 6   2453773.61922        19.000           1.750
  20089048.730    -9175021.678 7  -7149363.54221        26.500           1.406
  23038425.886    -5306060.600 6  -3874734.12321        13.000           0.563
 91  6 19 20 56 59.9990000  0  4G 2G 6G13G12
  21861067.503     4273019.240 7   3265915.20822        22.000           1.750
  21266894.862     3176710.918 6   2475357.05822        19.000           1.813
  20085524.237    -9193545.131 7  -7163797.39121        27.000           1.281
  23028252.690    -5359536.135 6  -3916403.35821        13.250           0.531
 91  6 19 20 57 14.9990000  0  4G 2G 6G13G12
  21865562.550     4296658.345 7   3284335.27322        21.250           1.688
  21272188.120     3204532.419 6   2497036.12722        18.750           1.750
  20082027.464    -9211919.429 7  -7178115.01621        27.000           1.438
  23018082.597    -5412969.291 6  -3958039.55821        13.000           0.594
 91  6 19 20 57 29.9990000  0  4G 2G 6G13G12
  21870074.378     4320348.995 7   3302795.49422        22.250           1.594
  21277503.409     3232466.881 6   2518803.21722        18.750           1.844
  20078557.940    -9230154.147 7  -7192323.88321        27.000           1.406
  23007922.042    -5466369.490 6  -3999650.07521        13.250           0.563
 91  6 19 20 57 44.9990000  0  4G 2G 6G13G12
  21874592.480     4344094.862 7   3321298.75022        21.500           1.875
  21282840.792     3260517.812 6   2540661.06622        19.000           1.906
  20075114.722    -9248245.709 7  -7206421.20021        27.000           1.344
  22997766.245    -5519732.810 6  -4041231.86621        13.250           0.500
 91  6 19 20 57 59.9990000  0  4G 2G 6G13G12
  21879121.558     4367894.981 7   3339844.27022        22.250           1.781
  21288200.440     3288684.001 6   2562608.72322        18.750           1.781
  20071698.472    -9266195.061 7  -7220407.69921        27.250           1.406
  22987618.823    -5573060.080 6  -4082785.55721        13.250           0.656
 91  6 19 20 58 14.9990000  0  4G 2G 6G13G12
  21883658.081     4391740.673 7   3358425.31622        21.750           1.531
  21293582.495     3316956.945 6   2584639.57522        18.750           1.750
  20068307.698    -9284010.961 7  -7234290.21521        27.500           1.438
  22977478.464    -5626359.453 6  -4124317.49921        13.750           0.531
 91  6 19 20 58 29.9990000  0  4G 2G 6G13G12
  21888205.073     4415634.851 7   3377044.13622        21.750           1.656
  21298984.206     3345339.364 6   2606755.73522        18.500           1.781
  20064944.519    -9301690.261 7  -7248066.28721        27.750           1.438
  22967339.956    -5679627.677 6  -4165825.17721        13.750           0.531
 91  6 19 20 58 44.9990000  0  4G 2G 6G13G12
  21892764.159     4439582.769 7   3395704.82222        22.750           1.938
  21304406.995     3373836.288 6   2628961.09722        18.250           1.719
  20061606.714    -9319227.961 7  -7261732.02021        27.500           1.438
  22957211.698    -5732859.310 6  -4207304.34021        13.500           0.500
 91  6 19 20 58 59.9990000  0  4G 2G 6G13G12
  21897330.269     4463589.844 7   3414411.61222        21.250           1.719
  21309853.378     3402453.286 6   2651260.02222        18.750           1.813
  20058297.464    -9336618.652 8  -7275283.20621        28.000           1.375
  22947088.159    -5786048.471 6  -4248750.43021        13.500           0.438
 91  6 19 20 59 14.9990000  0  4G 2G 6G13G12
  21901908.995     4487649.871 7   3433159.66822        22.500           1.719
  21315319.925     3431183.865 6   2673647.46622        18.500           1.813
  20055014.089    -9353868.366 7  -7288724.53621        27.750           1.344
  22936974.222    -5839201.023 6  -4290167.97221        13.000           0.594
 91  6 19 20 59 29.9990000  0  4G 2G 6G13G12
  21906499.073     4511766.283 7   3451951.66222        22.000           1.813
  21320807.597     3460031.492 6   2696126.11122        18.500           1.875
  20051759.808    -9370973.805 8  -7302053.43621        28.000           1.406
  22926865.440    -5892313.280 6  -4331554.11321        13.000           0.531
 91  6 19 20 59 44.9990000  0  4G 2G 6G13G12
  21911100.128     4535935.562 7   3470784.84222        22.000           1.906
  21326319.761     3488992.453 6   2718693.07022        18.750           1.781
  20048532.620    -9387938.656 7  -7315272.79521        27.750           1.344
  22916766.050    -5945388.471 6  -4372911.37121        13.250           0.594
 91  6 19 20 59 59.9990000  0  4G 2G 6G13G12
  21915708.878     4560157.827 7   3489659.30922        21.750           1.750
  21331850.526     3518066.675 6   2741348.28922        18.750           1.719
  20045330.112    -9404762.919 7  -7328382.60621        27.750           1.281
  22906676.167    -5998426.296 6  -4414239.53221        13.750           0.656
 91  6 19 21  0 14.9990000  0  4G 2G 6G13G12
  21920326.730     4584431.183 7   3508573.60522        20.000           1.781
  21337405.394     3547252.410 6   2764090.40322        18.750           1.656
  20042155.784    -9421448.301 8  -7341384.19921        28.500           1.188
  22896590.636    -6051428.085 6  -4455539.59921        14.250           0.469
 91  6 19 21  0 29.9990000  0  4G 2G 6G13G12
  21924955.644     4608754.618 7   3527526.89022        21.000           1.844
  21342980.862     3576548.367 6   2786918.39322        18.500           1.844
  20039006.769    -9437995.789 7  -7354278.33521        27.750           1.250
  22886510.034    -6104394.635 6  -4496812.20721        14.000           0.625
 91  6 19 21  0 44.9990000  0  4G 2G 6G13G12
  21929592.698     4633129.606 7   3546520.36222        20.000           1.656
  21348578.167     3605955.722 6   2809833.18622        19.250           1.719
  20035883.855    -9454404.289 7  -7367064.17821        27.750           1.313
  22876436.612    -6157324.371 6  -4538056.13021        13.750           0.406
 91  6 19 21  0 59.9990000  0  4G 2G 6G13G12
  21934244.261     4657557.969 7   3565555.43622        20.500           1.688
  21354192.308     3635476.326 6   2832836.24022        19.000           1.719
  20032787.214    -9470671.823 7  -7379740.17621        27.500           1.281
  22866372.409    -6210215.053 6  -4579269.62221        13.750           0.469
 91  6 19 21  1 14.9990000  0  4G 2G 6G13G12
  21938900.128     4682040.796 6   3584632.94022        19.500           1.781
  21359835.745     3665111.178 6   2855928.30322        19.250           1.656
  20029718.440    -9486797.264 7  -7392305.45121        27.750           1.281
  22856316.823    -6263065.257 6  -4620451.57921        13.750           0.563
 91  6 19 21  1 29.9990000  0  4G 2G 6G13G12
  21943571.620     4706576.735 7   3603751.82222        22.000           1.656
  21365493.628     3694858.663 6   2879108.14622        18.250           1.750
  20026677.542    -9502782.090 7  -7404761.15621        27.500           1.281
  22846265.620    -6315875.968 6  -4661602.75321        13.500           0.594
 91  6 19 21  1 44.9990000  0  4G 2G 6G13G12
  21948249.894     4731162.361 7   3622909.44322        20.500           1.750
  21371175.894     3724715.415 6   2902373.13122        19.000           1.750
  20023662.472    -9518629.812 7  -7417110.02621        27.750           1.281
  22836221.495    -6368650.355 6  -4702725.63521        13.750           0.625
 91  6 19 21  1 59.9990000  0  4G 2G 6G13G12
  21952936.511     4755797.568 7   3642105.67522        20.500           1.750
  21376877.730     3754681.239 6   2925723.09522        18.750           1.844
  20020672.073    -9534340.324 8  -7429351.97621        28.000           1.313
  22826186.776    -6421388.041 6  -4743819.90921        14.000           0.625
 91  6 19 21  2 14.9990000  0  4G 2G 6G13G12
  21957636.284     4780480.873 7   3661339.40122        20.000           1.594
  21382598.526     3784754.414 6   2949156.70522        18.750           1.781
  20017708.120    -9549915.480 8  -7441488.45821        28.250           1.313
  22816158.253    -6474090.384 6  -4784886.64521        13.750           0.625
 91  6 19 21  2 29.9990000  0  4G 2G 6G13G12
  21962337.855     4805211.460 6   3680609.96922        19.000           1.719
  21388345.042     3814934.040 6   2972673.27322        19.000           1.813
  20014770.909    -9565355.911 8  -7453519.96421        28.500           1.313
  22806138.472    -6526757.700 6  -4825926.08821        14.500           0.656
 91  6 19 21  2 44.9990000  0  4G 2G 6G13G12
  21967056.167     4829993.281 6   3699920.43522        19.500           1.781
  21394108.355     3845224.098 6   2996275.88922        19.000           1.719
  20011858.753    -9580657.897 8  -7465443.57621        28.500           1.344
  22796120.339    -6579385.702 6  -4866934.90621        14.000           0.563
 91  6 19 21  2 59.9990000  0  4G 2G 6G13G12
  21971780.440     4854820.193 6   3719266.05322        19.750           1.625
  21399890.456     3875618.198 6   3019959.57822        18.250           1.719
  20008972.003    -9595827.474 8  -7477264.02321        28.500           1.281
  22786111.659    -6631980.306 6  -4907917.67821        14.250           0.719
 91  6 19 21  3 14.9990000  0  4G 2G 6G13G12
  21976514.058     4879696.627 7   3738650.26622        20.000           1.656
  21405697.128     3906120.709 6   3043727.73722        18.500           1.781
  20006110.745    -9610860.244 8  -7488977.86421        28.000           1.313
  22776111.956    -6684536.674 6  -4948870.67421        14.500           0.656
 91  6 19 21  3 29.9990000  0  4G 2G 6G13G12
  21981256.792     4904626.384 7   3758076.02322        20.000           1.719
  21411520.401     3936735.370 6   3067583.29522        18.500           1.750
  20003277.214    -9625752.585 8  -7500582.28321        28.000           1.344
  22766120.323    -6737050.602 6  -4989790.60321        14.500           0.688
 91  6 19 21  3 44.9990000  0  4G 2G 6G13G12
  21986012.019     4929602.793 7   3777538.13622        21.000           1.656
  21417368.401     3967455.212 6   3091520.81122        18.250           1.719
  20000469.003    -9640511.304 8  -7512082.57921        28.250           1.281
  22756133.386    -6789528.604 6  -5030682.53121        14.250           0.781
 91  6 19 21  3 59.9990000  0  4G 2G 6G13G12
  21990775.651     4954637.832 7   3797045.95422        20.500           1.688
  21423235.315     3998292.215 6   3115549.61622        18.000           1.594
  19997687.050    -9655124.385 8  -7523469.38621        28.500           1.219
  22746155.276    -6841958.402 6  -5071536.89321        14.250           0.844
 91  6 19 21  4 14.9990000  0  4G 2G 6G13G12
  21995547.698     4979724.024 6   3816593.60022        19.750           1.656
  21429126.558     4029238.791 6   3139663.80722        18.500           1.656
  19994933.901    -9669599.352 8  -7534748.57821        28.500           1.281
  22736185.901    -6894347.070 6  -5112359.20821        14.250           0.750
 91  6 19 21  4 29.9990000  0  4G 2G 6G13G12
  22000332.831     5004862.653 7   3836182.12622        20.250           1.719
  21435035.706     4060296.022 6   3163864.22122        18.500           1.688
  19992205.237    -9683935.022 8  -7545919.22621        28.000           1.313
  22726224.870    -6946693.043 6  -5153148.26221        14.250           0.688
 91  6 19 21  4 44.9990000  0  4G 2G 6G13G12
  22005125.870     5030048.008 7   3855807.04522        20.750           1.656
  21440964.120     4091458.077 6   3188146.30922        18.000           1.656
  19989503.815    -9698136.893 8  -7556985.61721        28.250           1.250
  22716271.831    -6999001.641 6  -5193908.18421        14.250           0.688
 91  6 19 21  4 59.9990000  0  4G 2G 6G13G12
  22009927.878     5055280.018 6   3875468.33122        19.750           1.688
  21446913.612     4122724.788 6   3212509.95122        18.000           1.688
  19986826.120    -9712205.120 8  -7567947.86721        28.500           1.281
  22706324.792    -7051272.712 6  -5234638.87721        14.000           0.844
 91  6 19 21  5 14.9990000  0  4G 2G 6G13G12
  22014739.487     5080562.384 7   3895168.85122        21.250           1.625
  21452884.862     4154099.824 6   3236957.99822        18.000           1.594
  19984176.097    -9726136.097 8  -7578803.17121        28.750           1.250
  22696385.042    -7103502.195 6  -5275337.15021        13.750           0.781
 91  6 19 21  5 29.9990000  0  4G 2G 6G13G12
  22019559.956     5105896.979 6   3914910.07222        19.750           1.531
  21458874.339     4185584.658 6   3261491.60622        18.000           1.625
  19981550.487    -9739928.333 8  -7589550.35921        29.000           1.281
  22686454.269    -7155688.001 6  -5316001.39121        13.750           0.875
 91  6 19 21  5 44.9990000  0  4G 2G 6G13G12
  22024390.722     5131285.385 7   3934693.21522        20.500           1.625
  21464888.401     4217180.990 6   3286112.10021        17.750           1.438
  19978953.058    -9753580.100 8  -7600188.09921        29.000           1.313
  22676532.784    -7207828.106 6  -5356630.02021        13.750           0.813
 91  6 19 21  5 59.9990000  0  4G 2G 6G13G12
  22029231.753     5156723.152 7   3954514.84321        20.250           1.406
  21470920.698     4248884.085 6   3310815.78422        17.750           1.563
  19976380.284    -9767096.026 8  -7610719.98221        29.000           1.125
  22666617.339    -7259926.685 6  -5397226.28821        14.000           0.750
 91  6 19 21  6 14.9990000  0  4G 2G 6G13G12
  22034081.097     5182210.638 6   3974375.19822        19.250           1.500
  21476975.995     4280694.207 6   3335602.85822        18.000           1.531
  19973834.198    -9780475.624 8  -7621145.64521        29.000           1.156
  22656712.190    -7311983.025 6  -5437789.64821        14.250           0.875
 91  6 19 21  6 29.9990000  0  4G 2G 6G13G12
  22038939.550     5207743.622 6   3994270.99622        19.000           1.594
  21483047.769     4312607.188 6   3360470.09622        17.750           1.563
  19971314.120    -9793723.150 8  -7631468.38521        29.250           1.188
  22646815.050    -7364000.817 6  -5478322.96921        14.250           0.719
 91  6 19 21  6 44.9990000  0  4G 2G 6G13G12
  22043807.706     5233326.800 7   4014205.89822        20.000           1.531
  21489143.026     4344627.392 6   3385420.88022        18.000           1.500
  19968818.636    -9806834.203 8  -7641684.78921        29.000           1.125
  22636924.815    -7415975.230 6  -5518822.48721        14.250           0.875
 91  6 19 21  6 59.9990000  0  4G 2G 6G13G12
  22048686.237     5258960.895 6   4034180.51321        18.750           1.375
  21495257.730     4376755.459 6   3410455.71022        19.000           1.500
  19966349.933    -9819807.934 8  -7651794.18821        29.250           1.188
  22627039.542    -7467905.271 6  -5559287.43221        14.250           0.719
 91  6 19 21  7 14.9990000  0  4G 2G 6G13G12
  22053573.456     5284645.561 6   4054194.50521        18.750           1.406
  21501388.675     4408990.846 6   3435574.16422        18.500           1.500
  19963906.667    -9832645.008 8  -7661797.10021        28.750           1.188
  22617167.878    -7519790.955 6  -5599717.81421        14.250           0.750
 91  6 19 21  7 29.9990000  0  4G 2G 6G13G12
  22058470.933     5310378.717 6   4074246.29822        19.500           1.500
  21507544.190     4441331.428 6   3460774.59621        18.000           1.469
  19961490.464    -9845347.428 8  -7671695.09021        28.750           1.188
  22607302.948    -7571633.867 6  -5640114.85221        14.500           0.750
 91  6 19 21  7 44.9990000  0  4G 2G 6G13G12
  22063377.667     5336163.501 6   4094338.31122        19.500           1.500
  21513719.839     4473780.117 6   3486059.26322        18.250           1.563
  19959098.628    -9857912.159 8  -7681485.78221        29.000           1.219
  22597444.339    -7623430.556 6  -5680475.89221        14.500           0.844
 91  6 19 21  7 59.9990000  0  4G 2G 6G13G12
  22068293.378     5361996.263 6   4114467.72221        18.500           1.313
  21519911.784     4506333.257 6   3511425.32522        18.000           1.500
  19956733.269    -9870342.875 8  -7691172.05421        29.000           1.219
  22587597.917    -7675184.420 6  -5720803.55221        14.750           0.750
 91  6 19 21  8 14.9990000  0  4G 2G 6G13G12
  22073217.206     5387881.375 6   4134637.91521        17.500           1.250
  21526128.667     4538995.049 6   3536876.04822        18.250           1.531
  19954394.636    -9882635.267 8  -7700750.53321        29.250           1.219
  22577755.987    -7726890.709 6  -5761094.14521        14.500           0.781
 91  6 19 21  8 29.9990000  0  4G 2G 6G13G12
  22078157.792     5413819.713 6   4154849.58322        19.500           1.500
  21532365.433     4571766.244 6   3562412.01922        18.000           1.500
  19952081.456    -9894788.544 8  -7710220.62021        28.750           1.219
  22567927.355    -7778548.266 6  -5801346.76621        14.500           0.875
 91  6 19 21  8 44.9990000  0  4G 2G 6G13G12
  22083098.815     5439809.873 6   4175101.63321        17.750           1.375
  21538623.355     4604645.332 6   3588032.06922        18.250           1.563
  19949794.761    -9906804.091 8  -7719583.37821        29.250           1.250
  22558107.620    -7830158.003 6  -5841562.11921        14.750           0.906
 91  6 19 21  8 59.9990000  0  4G 2G 6G13G12
  22088058.605     5465857.969 6   4195398.81021        18.500           1.438
  21544900.831     4637638.336 6   3613740.87022        18.000           1.563
  19947536.581    -9918675.689 8  -7728833.97021        29.500           1.188
  22548296.386    -7881713.370 6  -5881735.10421        14.750           0.781
 91  6 19 21  9 14.9990000  0  4G 2G 6G13G12
  22093024.042     5491957.165 6   4215735.83921        18.250           1.438
  21551198.151     4670738.123 6   3639532.88422        17.500           1.500
  19945303.011    -9930410.499 8  -7737977.97321        29.250           1.219
  22538496.503    -7933221.005 6  -5921870.91121        15.250           0.875
 91  6 19 21  9 29.9990000  0  4G 2G 6G13G12
  22098001.612     5518108.782 6   4236113.69621        17.750           1.313
  21557517.128     4703945.915 6   3665409.05521        17.500           1.438
  19943096.831    -9942007.472 8  -7747014.57321        29.500           1.250
  22528703.190    -7984679.418 6  -5961968.33321        15.250           0.844
 91  6 19 21  9 44.9990000  0  4G 2G 6G13G12
  22102986.230     5544311.702 6   4256531.53821        18.500           1.313
  21563858.347     4737260.235 6   3691368.24721        17.500           1.469
  19940914.581    -9953467.823 8  -7755944.71421        29.000           1.250
  22518920.284    -8036089.437 6  -6002028.06521        15.000           0.813
 91  6 19 21  9 59.9990000  0  4G 2G 6G13G12
  22107982.198     5570565.805 6   4276989.25821        18.500           1.375
  21570216.534     4770680.956 6   3717410.33521        17.250           1.438
  19938760.878    -9964791.373 8  -7764768.26021        29.000           1.188
  22509146.542    -8087450.734 6  -6042049.82521        15.500           0.813
 91  6 19 21 10 14.9990000  0  4G 2G 6G13G12
  22112990.097     5596869.202 6   4297485.39021        19.250           1.313
  21576595.792     4804205.976 6   3743533.69521        17.250           1.438
  19936631.628    -9975980.435 8  -7773487.00621        29.000           1.219
  22499381.956    -8138764.938 6  -6082034.89821        15.250           0.781
 91  6 19 21 10 29.9990000  0  4G 2G 6G13G12
  22118001.886     5623222.278 6   4318020.23821        18.000           1.313
  21582998.206     4837835.725 6   3769738.66321        17.750           1.406
  19934527.987    -9987034.926 8  -7782100.89521        28.750           1.125
  22489625.401    -8190031.238 6  -6121982.63021        15.750           0.844
 91  6 19 21 10 44.9990000  0  4G 2G 6G13G12
  22123027.081     5649623.590 6   4338592.66821        18.750           1.344
  21589415.003     4871568.556 6   3796023.95921        17.500           1.438
  19932449.386    -9997955.985 8  -7790610.80521        28.750           1.219
  22479878.956    -8241250.600 6  -6161893.80121        15.750           0.813
 91  6 19 21 10 59.9990000  0  4G 2G 6G13G12
  22128061.370     5676080.433 6   4359208.36921        18.000           1.406
  21595854.808     4905411.694 6   3822395.20021        17.500           1.375
  19930398.292   -10008736.296 8  -7799011.04921        29.250           1.156
  22470142.964    -8292415.369 6  -6201762.42621        15.750           0.813
 91  6 19 21 11 14.9990000  0  4G 2G 6G13G12
  22133106.855     5702589.994 6   4379865.13821        17.750           1.313
  21602315.511     4939362.060 6   3848850.01121        17.750           1.344
  19928373.644   -10019378.804 8  -7807303.91021        29.000           1.188
  22460418.519    -8343528.120 6  -6241590.51121        16.000           0.875
 91  6 19 21 11 29.9990000  0  4G 2G 6G13G12
  22138161.245     5729149.510 6   4400560.83021        19.000           1.281
  21608795.925     4973416.804 6   3875386.14521        17.500           1.281
  19926372.940   -10029886.492 8  -7815491.71921        28.750           1.188
  22450698.089    -8394591.271 6  -6281379.95121        16.000           0.969
 91  6 19 21 11 44.9990000  0  4G 2G 6G13G12
  22143224.815     5755762.587 6   4421298.28121        18.250           1.219
  21615296.933     5007579.293 6   3902006.24021        17.250           1.313
  19924400.542   -10040255.858 8  -7823571.74421        28.750           1.188
  22440993.151    -8445600.880 6  -6321127.66521        16.250           0.906
 91  6 19 21 11 59.9990000  0  4G 2G 6G13G12
  22148298.800     5782429.707 6   4442077.83521        17.750           1.313
  21621820.159     5041849.926 6   3928710.60821        17.250           1.344
  19922452.690   -10050486.530 8  -7831543.69421        28.750           1.156
  22431294.714    -8496556.190 6  -6360833.08421        16.500           0.875
 91  6 19 21 12 14.9990000  0  4G 2G 6G13G12
  22153383.855     5809146.755 6   4462896.26321        18.750           1.375
  21628359.800     5076224.364 6   3955495.85121        17.250           1.281
  19920531.847   -10060582.605 8  -7839410.75921        28.750           1.188
  22421607.948    -8547460.969 6  -6400499.12521        16.250           0.969
 91  6 19 21 12 29.9990000  0  4G 2G 6G13G12
  22158477.925     5835914.679 6   4483754.36421        19.000           1.375
  21634921.065     5110703.540 6   3982362.71821        17.250           1.250
  19918636.448   -10070543.165 8  -7847172.23321        28.500           1.063
  22411929.808    -8598313.874 6  -6440124.73121        16.250           1.031
 91  6 19 21 12 44.9990000  0  4G 2G 6G13G12
  22163579.980     5862734.458 6   4504652.86421        17.750           1.344
  21641503.628     5145288.238 6   4009311.79421        17.750           1.438
  19916767.198   -10080367.462 8  -7854827.52621        28.500           1.156
  22402265.542    -8649113.570 6  -6479708.88721        16.750           0.969
 91  6 19 21 12 59.9990000  0  4G 2G 6G13G12
  22168694.378     5889603.324 6   4525589.61221        19.500           1.344
  21648102.058     5179975.561 6   4036340.84221        16.750           1.375
  19914923.003   -10090058.521 8  -7862379.00121        28.500           1.188
  22392607.651    -8699862.577 6  -6519253.54321        16.500           0.969
 91  6 19 21 13 14.9990000  0  4G 2G 6G13G12
  22173815.823     5916519.762 6   4546563.44121        18.250           1.406
  21654723.706     5214763.642 6   4063448.40621        17.000           1.375
  19913103.745   -10099617.773 8  -7869827.76521        29.250           1.156
  22382958.870    -8750562.133 6  -6558759.65821        16.250           1.063
 91  6 19 21 13 29.9990000  0  4G 2G 6G13G12
  22178947.730     5943488.288 6   4567577.84521        18.250           1.313
  21661363.995     5249656.962 6   4090637.97721        17.000           1.281
  19911310.253   -10109040.739 8  -7877170.33221        29.000           1.125
  22373320.058    -8801207.197 6  -6598223.32821        16.500           1.063
 91  6 19 21 13 44.9990000  0  4G 2G 6G13G12
  22184090.003     5970513.099 6   4588636.10921        18.500           1.281
  21668025.448     5284659.633 6   4117912.75221        16.750           1.344
  19909544.237   -10118323.304 8  -7884403.50021        28.750           1.313
  22363695.323    -8851793.258 6  -6637641.01421        16.250           1.000
 91  6 19 21 13 59.9990000  0  4G 2G 6G13G12
  22189243.534     5997591.231 6   4609735.92221        19.500           1.406
  21674707.425     5319768.453 6   4145270.24621        16.500           1.281
  19907804.948   -10127468.613 8  -7891529.71621        28.750           1.156
  22354079.737    -8902322.973 6  -6677014.79021        16.250           1.063
 91  6 19 21 14 14.9990000  0  4G 2G 6G13G12
  22194406.511     6024725.922 6   4630879.82221        18.000           1.281
  21681406.714     5354986.632 6   4172712.94921        16.250           1.313
  19906091.019   -10136473.515 8  -7898546.52721        29.000           1.219
  22344475.644    -8952792.649 6  -6716341.78521        16.500           1.000
 91  6 19 21 14 29.9990000  0  4G 2G 6G13G12
  22199581.183     6051914.965 6   4652066.03821        17.500           1.344
  21688129.190     5390311.672 6   4200238.91821        16.500           1.375
  19904403.190   -10145340.240 8  -7905455.66021        29.500           1.219
  22334881.901    -9003204.203 6  -6755623.49621        16.500           1.000
 91  6 19 21 14 44.9990000  0  4G 2G 6G13G12
  22204763.495     6079149.359 6   4673287.59221        19.000           1.281
  21694868.448     5425734.473 6   4227841.06121        16.000           1.406
  19902739.776   -10154077.931 8  -7912264.24821        28.750           1.156
  22325300.230    -9053566.201 6  -6794866.58621        16.500           0.938
 91  6 19 21 14 59.9990000  0  4G 2G 6G13G12
  22209955.136     6106435.574 6   4694549.56221        18.500           1.188
  21701629.597     5461261.154 6   4255524.15021        16.750           1.313
  19901103.019   -10162680.504 8  -7918967.55521        29.000           1.219
  22315727.722    -9103872.105 6  -6834065.96621        16.750           1.031
 91  6 19 21 15 14.9990000  0  4G 2G 6G13G12
  22215161.026     6133778.645 6   4715855.82721        18.250           1.125
  21708412.605     5496896.893 6   4283292.22821        17.000           1.250
  19899492.862   -10171142.692 8  -7925561.46221        28.750           1.313
  22306164.144    -9154116.203 6  -6873217.18621        16.750           1.063
 91  6 19 21 15 29.9990000  0  4G 2G 6G13G12
  22220372.245     6161178.732 6   4737206.51921        17.250           1.094
  21715214.456     5532641.659 6   4311145.24921        17.500           1.375
  19897909.042   -10179464.574 8  -7932046.04421        28.750           1.188
  22296615.464    -9204298.136 6  -6912319.96921        17.000           1.156
 91  6 19 21 15 44.9990000  0  4G 2G 6G13G12
  22225596.847     6188627.260 6   4758594.94721        18.500           1.094
  21722034.987     5568486.504 6   4339076.26821        17.250           1.250
  19896350.526   -10187654.854 8  -7938428.07821        28.250           1.156
  22287075.487    -9254426.325 6  -6951380.87421        17.000           1.094
 91  6 19 21 15 59.9990000  0  4G 2G 6G13G12
  22230829.448     6216127.801 6   4780023.92121        18.500           1.344
  21728874.464     5604434.867 6   4367087.94621        17.250           1.344
  19894817.855   -10195709.903 8  -7944704.73821        28.000           1.156
  22277549.550    -9304496.700 6  -6990396.72121        17.250           1.125
 91  6 19 21 16 14.9990000  0  4G 2G 6G13G12
  22236073.151     6243679.998 6   4801493.11821        17.750           1.188
  21735734.901     5640486.317 6   4395179.94821        17.250           1.313
  19893309.925   -10203630.537 8  -7950876.66121        28.000           1.219
  22268030.503    -9354509.187 6  -7029367.46921        17.750           1.188
 91  6 19 21 16 29.9990000  0  4G 2G 6G13G12
  22241325.745     6271285.180 6   4823003.61021        18.500           1.094
  21742618.651     5676642.010 6   4423353.19221        17.750           1.375
  19891829.206   -10211415.411 8  -7956942.79421        28.000           1.250
  22258526.776    -9404462.233 6  -7068291.89721        17.250           1.094
 91  6 19 21 16 44.9990000  0  4G 2G 6G13G12
  22246587.878     6298937.986 6   4844551.23121        17.750           1.219
  21749516.667     5712896.378 6   4451603.30721        17.750           1.313
  19890372.284   -10219069.696 8  -7962907.17421        28.500           1.250
  22249028.730    -9454360.804 6  -7107173.87721        17.500           1.000
 91  6 19 21 16 59.9990000  0  4G 2G 6G13G12
  22251859.565     6326639.354 6   4866136.66721        18.750           1.281
  21756434.440     5749250.224 6   4479930.94121        17.000           1.313
  19888941.534   -10226592.910 8  -7968769.41821        28.500           1.250
  22239546.581    -9504203.613 6  -7146012.41021        17.750           1.219
 91  6 19 21 17 14.9990000  0  4G 2G 6G13G12
  22257143.355     6354396.909 6   4887765.88621        19.250           1.031
  21763372.784     5785711.014 6   4508341.91021        16.500           1.219
  19887537.011   -10233977.446 7  -7974523.60021        27.750           1.281
  22230073.276    -9553982.637 6  -7184801.23721        17.750           1.000
 91  6 19 21 17 29.9990000  0  4G 2G 6G13G12
  22262432.964     6382205.174 6   4909434.65621        17.500           1.125
  21770329.011     5822273.037 6   4536831.76521        16.500           1.219
  19886157.089   -10241228.797 8  -7980174.00421        28.250           1.188
  22220610.386    -9603703.057 6  -7223544.40321        17.500           1.094
 91  6 19 21 17 44.9990000  0  4G 2G 6G13G12
  22267735.855     6410071.144 6   4931148.36021        17.500           1.094
  21777307.440     5858943.216 6   4565405.90021        16.500           1.188
  19884802.948   -10248339.987 8  -7985715.19421        28.250           1.188
  22211162.308    -9653357.526 6  -7262236.17321        17.750           1.031
 91  6 19 21 17 59.9990000  0  4G 2G 6G13G12
  22273049.886     6437996.838 6   4952908.60221        17.500           1.219
  21784307.003     5895723.466 6   4594065.79721        16.250           1.250
  19883476.776   -10255309.323 7  -7991145.84221        27.750           1.250
  22201729.019    -9702943.535 6  -7300874.59121        18.000           1.000
 91  6 19 21 18 14.9990000  0  4G 2G 6G13G12
  22278373.573     6465974.019 6   4974708.97121        17.750           1.188
  21791324.722     5932605.216 6   4622804.79021        16.000           1.156
  19882176.480   -10262145.314 8  -7996472.58921        28.000           1.219
  22192304.042    -9752469.123 6  -7339465.94321        18.000           1.063
 91  6 19 21 18 29.9990000  0  4G 2G 6G13G12
  22283707.175     6494001.472 6   4996548.50621        18.000           1.281
  21798361.815     5969587.018 6   4651621.74621        16.250           1.188
  19880899.581   -10268849.269 8  -8001696.45521        28.250           1.250
  22182888.706    -9801935.197 6  -7378010.91421        17.750           1.094
 91  6 19 21 18 44.9990000  0  4G 2G 6G13G12
  22289050.784     6522083.418 6   5018430.50721        17.000           1.156
  21805418.253     6006673.069 6   4680519.93221        16.750           1.219
  19879651.378   -10275416.773 7  -8006813.98821        27.750           1.219
  22173488.995    -9851337.079 6  -7416505.87421        18.000           1.094
 91  6 19 21 18 59.9990000  0  4G 2G 6G13G12
  22294406.808     6550220.919 6   5040355.80321        17.000           1.000
  21812496.980     6043864.246 6   4709500.04021        17.250           1.188
  19878425.534   -10281846.896 7  -8011824.47021        27.500           1.156
  22164099.940    -9900673.238 6  -7454949.61721        17.750           1.125
 91  6 19 21 19 14.9990000  0  4G 2G 6G13G12
  22299770.784     6578415.322 6   5062325.45021        16.500           1.000
  21819595.878     6081161.580 6   4738562.86521        17.500           1.063
  19877230.073   -10288138.633 7  -8016727.12821        27.750           1.156
  22154721.886    -9949942.142 6  -7493340.94521        17.500           1.063
 91  6 19 21 19 29.9990000  0  4G 2G 6G13G12
  22305145.636     6606661.786 6   5084335.64721        17.000           1.125
  21826711.995     6118560.364 6   4767704.73921        17.750           1.219
  19876059.097   -10294296.681 7  -8021525.60221        27.750           1.219
  22145360.565    -9999148.116 6  -7531683.24121        17.500           1.031
 91  6 19 21 19 44.9990000  0  4G 2G 6G13G12
  22310531.644     6634961.859 6   5106387.62521        16.750           1.125
  21833847.659     6156061.799 6   4796926.59521        17.250           1.188
  19874910.409   -10300319.733 7  -8026218.89221        27.500           1.188
  22136008.347   -10048289.323 6  -7569975.07421        17.500           1.000
 91  6 19 21 19 59.9990000  0  4G 2G 6G13G12
  22315926.573     6663317.398 6   5128482.81521        16.500           1.281
  21841004.714     6193667.509 6   4826229.71721        17.500           1.125
  19873791.245   -10306206.203 7  -8030805.75521        27.500           1.125
  22126670.683   -10097363.647 6  -7608214.78821        17.500           1.094
 91  6 19 21 20 14.9990000  0  4G 2G 6G13G12
  22321332.105     6691721.866 6   5150616.12221        16.500           1.219
  21848180.331     6231370.948 6   4855608.98421        17.750           1.188
  19872694.995   -10311962.638 7  -8035291.28521        27.500           1.281
  22117342.753   -10146377.082 6  -7646407.04821        17.500           1.094
 91  6 19 21 20 29.9990000  0  4G 2G 6G13G12
  22326748.503     6720181.014 6   5172792.05221        16.750           1.094
  21855373.362     6269177.696 6   4885068.74921        17.500           1.219
  19871626.065   -10317583.378 7  -8039671.08021        27.750           1.313
  22108032.214   -10195323.530 6  -7684547.11421        18.000           1.063
 91  6 19 21 20 44.9990000  0  4G 2G 6G13G12
  22332172.909     6748691.435 6   5195007.92921        17.500           1.000
  21862584.831     6307083.854 6   4914605.98421        17.000           1.156
  19870581.480   -10323072.008 8  -8043947.93621        28.000           1.281
  22098726.581   -10244206.341 6  -7722637.59821        17.500           1.000
 91  6 19 21 20 59.9990000  0  4G 2G 6G13G12
  22337607.550     6777251.226 6   5217262.30821        16.250           1.156
  21869817.175     6345087.526 6   4944219.19921        17.500           1.250
  19869561.706   -10328430.456 8  -8048123.35021        28.250           1.281
  22089435.925   -10293027.036 6  -7760679.67621        17.750           1.094
 91  6 19 21 21 14.9990000  0  4G 2G 6G13G12
  22343053.815     6805865.398 6   5239559.00121        17.250           1.156
  21877068.480     6383193.603 6   4973912.20621        17.250           1.188
  19868566.761   -10333653.875 8  -8052193.54821        28.000           1.313
  22080159.964   -10341780.059 6  -7798669.02321        17.750           1.156
 91  6 19 21 21 29.9990000  0  4G 2G 6G13G12
  22348507.409     6834535.496 6   5261899.32521        15.750           1.156
  21884340.839     6421403.341 6   5003685.99521        17.500           1.281
  19867600.675   -10338741.081 8  -8056157.60221        28.750           1.250
  22070896.894   -10390463.629 6  -7836604.24821        18.000           1.188
 91  6 19 21 21 44.9990000  0  4G 2G 6G13G12
  22353974.245     6863257.552 6   5284280.11321        16.000           1.250
  21891628.690     6459712.671 6   5033537.38521        17.250           1.219
  19866656.815   -10343695.849 8  -8060018.46321        28.250           1.344
  22061643.550   -10439081.343 6  -7874488.15521        18.000           1.063
 91  6 19 21 21 59.9990000  0  4G 2G 6G13G12
  22359450.901     6892033.756 6   5306703.08421        16.250           1.063
  21898939.940     6498123.480 6   5063467.85121        16.750           1.219
  19865740.659   -10348516.440 8  -8063774.76621        28.500           1.219
  22052405.823   -10487630.651 6  -7912318.77121        18.250           1.063
 91  6 19 21 22 14.9990000  0  4G 2G 6G13G12
  22364939.550     6920868.968 6   5329172.05521        16.750           1.000
  21906269.511     6536640.660 6   5093481.20321        16.500           1.188
  19864848.753   -10353197.854 8  -8067422.62121        28.500           1.313
  22043180.136   -10536106.244 6  -7950091.93721        18.250           1.031
 91  6 19 21 22 29.9990000  0  4G 2G 6G13G12
  22370432.745     6949756.015 6   5351681.40721        16.500           1.125
  21913616.972     6575256.707 6   5123571.58921        16.250           1.219
  19863983.190   -10357747.545 8  -8070967.83921        28.750           1.281
  22033969.300   -10584514.977 6  -7987813.00521        18.750           1.094
 91  6 19 21 22 44.9990000  0  4G 2G 6G13G12
  22375941.698     6978697.444 6   5374233.15021        16.000           1.094
  21920985.019     6613973.987 6   5153740.86321        16.250           1.156
  19863143.355   -10362163.099 8  -8074408.53121        28.750           1.156
  22024772.776   -10632853.902 6  -8025479.68721        19.000           1.219
 91  6 19 21 22 59.9990000  0  4G 2G 6G13G12
  22381459.831     7007693.746 6   5396827.64321        16.000           1.094
  21928374.581     6652792.896 6   5183989.32921        16.750           1.219
  19862328.784   -10366444.298 8  -8077744.52721        28.500           1.219
  22015585.972   -10681122.183 6  -8063091.30921        18.750           1.094
 91  6 19 21 23 14.9990000  0  4G 2G 6G13G12
  22386989.495     7036746.079 6   5419465.80221        16.250           1.094
  21935778.980     6691714.386 6   5214317.72521        16.500           1.188
  19861539.823   -10370589.995 8  -8080974.94021        28.750           1.188
  22006414.214   -10729318.306 6  -8100646.71121        18.750           1.188
 91  6 19 21 23 29.9990000  0  4G 2G 6G13G12
  22392528.542     7065854.798 6   5442147.87121        16.000           1.156
  21943204.706     6730738.444 6   5244726.05121        16.250           1.125
  19860776.097   -10374599.820 8  -8084099.48121        29.000           1.219
  21997256.730   -10777441.635 6  -8138145.38821        18.500           1.344
 91  6 19 21 23 44.9990000  0  4G 2G 6G13G12
  22398075.980     7095014.501 6   5464869.68921        16.250           1.031
  21950650.511     6769859.769 6   5275210.16521        16.500           1.125
  19860038.972   -10378479.277 8  -8087122.43421        28.750           1.250
  21988111.433   -10825497.048 6  -8175591.13821        18.750           1.188
 91  6 19 21 23 59.9990000  0  4G 2G 6G13G12
  22403637.503     7124232.011 6   5487636.55021        15.500           1.000
  21958113.495     6809084.999 6   5305775.24621        16.000           1.031
  19859328.198   -10382221.577 8  -8090038.51321        28.750           1.125
  21978979.573   -10873477.275 6  -8212978.30921        19.250           1.219
 91  6 19 21 24 14.9990000  0  4G 2G 6G13G12
  22409208.300     7153505.700 6   5510447.18021        16.750           1.031
  21965598.909     6848412.299 6   5336419.86021        16.250           1.094
  19858639.433   -10385828.540 8  -8092849.13721        28.500           1.281
  21969864.315   -10921383.618 6  -8250307.91121        18.750           1.281
 91  6 19 21 24 29.9990000  0  4G 2G 6G13G12
  22414787.019     7182836.473 6   5533302.30221        15.250           1.000
  21973100.956     6887842.085 6   5367144.33521        16.250           1.188
  19857980.003   -10389299.930 8  -8095554.11821        29.000           1.313
  21960762.355   -10969215.126 6  -8287579.19421        19.000           1.250
 91  6 19 21 24 44.9990000  0  4G 2G 6G13G12
  22420382.276     7212225.075 6   5556202.47621        15.750           1.000
  21980623.050     6927375.066 6   5397949.21721        16.000           1.156
  19857344.620   -10392635.038 8  -8098152.90721        28.750           1.281
  21951674.761   -11016970.555 6  -8324791.19821        19.000           1.250
 91  6 19 21 24 59.9990000  0  4G 2G 6G13G12
  22425984.472     7241665.630 6   5579143.14121        14.750           0.969
  21988165.925     6967005.171 6   5428829.77621        16.250           1.031
  19856734.659   -10395839.796 8  -8100650.11721        28.750           1.188
  21942603.269   -11064655.368 6  -8361948.16621        19.750           1.313
 91  6 19 21 25 14.9990000  0  4G 2G 6G13G12
  22431597.128     7271161.368 6   5602126.77721        15.750           1.031
  21995726.151     7006735.528 6   5459788.46821        16.000           1.000
  19856150.120   -10398910.931 8  -8103043.21821        28.500           1.250
  21933540.190   -11112266.015 6  -8399047.35221        19.750           1.281
 91  6 19 21 25 29.9990000  0  4G 2G 6G13G12
  22437221.011     7300711.714 6   5625152.99721        15.750           1.031
  22003306.487     7046565.345 6   5490824.64221        16.000           1.000
  19855591.151   -10401849.267 8  -8105332.83121        28.500           1.250
  21924495.511   -11159802.603 6  -8436088.83221        19.750           1.344
 91  6 19 21 25 44.9990000  0  4G 2G 6G13G12
  22442852.675     7330318.741 6   5648223.36921        15.250           1.094
  22010902.526     7086496.493 6   5521939.78021        15.750           1.063
  19855057.995   -10404653.072 8  -8107517.61521        28.500           1.281
  21915464.417   -11207262.835 6  -8473070.81321        19.750           1.375
 91  6 19 21 25 59.9990000  0  4G 2G 6G13G12
  22448497.823     7359977.569 6   5671334.10021        16.250           1.000
  22018521.058     7126523.883 6   5553129.92121        15.750           1.000
  19854549.175   -10407327.026 8  -8109601.21521        28.500           1.250
  21906445.331   -11254651.220 6  -8509996.80621        19.250           1.406
 91  6 19 21 26 14.9990000  0  4G 2G 6G13G12
  22454152.464     7389693.331 6   5694489.21521        15.500           0.969
  22026157.081     7166652.454 6   5584398.89121        15.500           1.063
  19854064.409   -10409866.287 8  -8111579.86521        28.500           1.281
  21897444.394   -11301962.239 6  -8546862.50821        19.750           1.313
 91  6 19 21 26 29.9990000  0  4G 2G 6G13G12
  22459819.370     7419466.165 6   5717688.78421        15.750           0.875
  22033812.620     7206882.143 6   5615746.66521        15.500           1.125
  19853608.214   -10412270.861 8  -8113453.55921        28.500           1.281
  21888453.933   -11349195.214 7  -8583667.40721        20.000           1.438
 91  6 19 21 26 44.9990000  0  4G 2G 6G13G12
  22465494.839     7449298.692 6   5740934.88621        15.750           0.875
  22041487.448     7247215.372 6   5647175.12121        15.250           0.969
  19853176.792   -10414538.146 8  -8115220.27721        28.500           1.281
  21879482.026   -11396347.304 7  -8620409.28121        20.000           1.281
 91  6 19 21 26 59.9990000  0  4G 2G 6G13G12
  22471180.214     7479180.860 6   5764219.64621        16.250           0.781
  22049179.948     7287641.920 6   5678676.28621        15.000           1.063
  19852769.284   -10416678.432 8  -8116888.03221        28.250           1.313
  21870522.401   -11443428.147 6  -8657095.63521        19.500           1.469
 91  6 19 21 27 14.9990000  0  4G 2G 6G13G12
  22476877.644     7509114.294 6   5787544.37721        16.000           0.844
  22056891.542     7328163.169 6   5710251.25021        15.250           1.125
  19852387.089   -10418690.245 8  -8118455.68321        28.250           1.250
  21861577.136   -11490435.808 6  -8693724.96321        19.750           1.469
 91  6 19 21 27 29.9990000  0  4G 2G 6G13G12
  22482585.347     7539103.281 6   5810912.39521        16.000           0.844
  22064619.784     7368783.259 6   5741903.23121        15.500           1.031
  19852028.448   -10420569.246 8  -8119919.84021        28.000           1.219
  21852646.534   -11537365.639 6  -8730293.64321        19.500           1.406
 91  6 19 21 27 44.9990000  0  4G 2G 6G13G12
  22488300.730     7569146.203 6   5834322.43121        15.250           0.844
  22072368.675     7409500.560 6   5773630.94721        14.750           1.219
  19851695.722   -10422317.426 8  -8121282.06321        28.000           1.344
  21843732.698   -11584218.646 7  -8766802.46421        20.000           1.469
 91  6 19 21 27 59.9990000  0  4G 2G 6G13G12
  22494029.440     7599245.498 6   5857776.38621        16.000           0.750
  22080135.675     7450317.050 6   5805435.96621        15.000           1.188
  19851388.573   -10423932.625 8  -8122540.65821        28.000           1.344
  21834829.980   -11630992.262 6  -8803249.41822        19.750           1.531
 91  6 19 21 28 14.9990000  0  4G 2G 6G13G12
  22499768.144     7629403.314 6   5881275.94821        15.750           0.969
  22087923.003     7491234.820 6   5837319.90721        15.000           1.156
  19851106.620   -10425412.790 8  -8123694.03921        28.000           1.219
  21825944.401   -11677683.964 7  -8839632.55021        20.000           1.438
 91  6 19 21 28 29.9990000  0  4G 2G 6G13G12
  22505515.792     7659610.388 6   5904813.89921        14.750           0.781
  22095726.425     7532244.378 6   5869275.36421        15.000           1.156
  19850849.472   -10426767.275 8  -8124749.48121        28.250           1.406
  21817074.683   -11724302.608 7  -8875958.74022        20.500           1.500
 91  6 19 21 28 44.9990000  0  4G 2G 6G13G12
  22511274.612     7689872.475 6   5928394.69821        15.000           0.938
  22103549.933     7573351.165 6   5901306.58221        15.000           1.156
  19850616.878   -10427990.462 8  -8125702.61421        28.250           1.344
  21808219.190   -11770842.149 7  -8912223.29721        20.000           1.406
 91  6 19 21 28 59.9990000  0  4G 2G 6G13G12
  22517045.456     7720192.629 6   5952020.76221        15.000           0.813
  22111390.042     7614558.046 6   5933415.80021        15.000           1.094
  19850407.761   -10429079.521 8  -8126551.23521        28.250           1.438
  21799379.237   -11817299.252 7  -8948423.61421        20.250           1.438
 91  6 19 21 29 14.9990000  0  4G 2G 6G13G12
  22522824.136     7750571.090 6   5975692.25821        14.500           0.750
  22119250.659     7655865.068 6   5965603.05321        14.750           1.094
  19850226.190   -10430034.456 8  -8127295.34421        28.000           1.313
  21790553.839   -11863673.203 7  -8984559.14722        20.500           1.500
 91  6 19 21 29 29.9990000  0  4G 2G 6G13G12
  22528615.972     7781003.673 6   5999405.92421        15.500           0.875
  22127127.003     7697267.999 6   5997865.02621        14.250           1.063
  19850069.737   -10430859.466 7  -8127938.21021        27.750           1.375
  21781743.448   -11909967.665 7  -9020632.73722        20.500           1.531
 91  6 19 21 29 44.9990000  0  4G 2G 6G13G12
  22534418.151     7811491.870 6   6023162.92221        16.250           0.875
  22135026.753     7738768.254 6   6030202.84021        14.250           1.125
  19849937.558   -10431553.121 7  -8128478.72421        27.750           1.469
  21772949.706   -11956180.735 7  -9056642.89922        20.750           1.625
 91  6 19 21 29 59.9990000  0  4G 2G 6G13G12
  22540231.323     7842037.318 6   6046964.54321        15.750           0.906
  22142943.448     7780367.105 6   6062617.49421        14.250           1.031
  19849832.112   -10432113.842 8  -8128915.65221        28.000           1.344
  21764171.987   -12002310.452 7  -9092588.11822        20.500           1.594
 91  6 19 21 30 14.9990000  0  4G 2G 6G13G12
  22546054.823     7872640.140 6   6070810.86621        15.250           0.875
  22150877.112     7822064.517 6   6095108.92721        14.250           0.969
  19849748.628   -10432541.901 8  -8129249.20821        28.250           1.375
  21755409.128   -12048356.477 7  -9128468.12622        20.250           1.656
 91  6 19 21 30 29.9990000  0  4G 2G 6G13G12
  22551889.675     7903304.018 6   6094704.75321        15.750           0.906
  22158829.034     7863863.803 6   6127679.75521        14.000           0.875
  19849698.003   -10432833.778 8  -8129476.64621        28.000           1.344
  21746663.214   -12094314.767 7  -9164279.75922        20.500           1.563
 91  6 19 21 30 44.9990000  0  4G 2G 6G13G12
  22557734.347     7934024.471 6   6118642.72221        14.750           0.750
  22166806.558     7905760.383 6   6160326.40521        14.250           1.000
  19849664.925   -10432994.056 8                        28.250
  21737934.862   -12140189.396 7  -9200026.20922        20.750           1.594
 91  6 19 21 30 59.9980000  0  4G 2G 6G13G12
  22563591.654     7964799.568 6   6142623.28721        16.250           0.750
  22174796.092     7947751.274 6   6193046.53321        14.750           0.781
  19849659.529   -10433022.849 7                        27.750
  21729221.787   -12185976.949 7  -9235704.80222        20.500           1.656
 91  6 19 21 31 14.9980000  0  4G 2G 6G13G12
  22569458.412     7995631.182 6   6166647.88721        16.250           0.688
  22182804.897     7989839.787 6   6225842.73921        14.500           0.844
  19849677.686   -10432922.568 7                        27.750
  21720522.482   -12231685.210 7  -9271321.61422        20.500           1.563
 91  6 19 21 31 29.9980000  0  4G 2G 6G13G12
  22575336.514     8026516.976 6   6190714.72421        15.500           0.688
  22190832.756     8032022.677 6   6258712.47821        14.250           0.844
  19849723.678   -10432693.472 8                        28.250
  21711841.740   -12277310.872 7  -9306874.07022        20.500           1.563
 91  6 19 21 31 44.9980000  0  4G 2G 6G13G12
  22581226.084     8057460.818 6   6214826.78321        17.000           0.813
  22198877.865     8074303.482 6   6291658.51321        14.500           0.844
  19849789.232   -10432331.976 7                        27.500
  21703174.264   -12322849.957 7  -9342359.05622        20.500           1.563
 91  6 19 21 31 59.9980000  0  4G 2G 6G13G12
  22587126.076     8088458.720 6   6238980.94821        16.250           0.813
  22206940.631     8116677.893 6   6324677.50121        14.500           0.813
  19849884.959   -10431842.218 7  -8128704.02321        27.500           1.375
  21694524.357   -12368306.228 7  -9377779.50822        21.500           1.719
 91  6 19 21 32 14.9980000  0  4G 2G 6G13G12
  22593035.514     8119518.127 6   6263183.03421        16.250           0.719
  22215024.881     8159153.295 6   6357775.18121        14.500           0.719
  19850001.178   -10431217.101 7  -8128216.92321        27.250           1.344
  21685892.389   -12413671.645 7  -9413129.16622        21.250           1.688
 91  6 19 21 32 29.9980000  0  4G 2G 6G13G12
  22598954.693     8150633.211 6   6287428.53721        15.500           0.969
  22223125.568     8201723.708 6   6390946.88821        14.500           0.781
  19850145.459   -10430462.426 7  -8127628.86721        27.250           1.344
  21677275.436   -12458951.633 7  -9448412.25922        21.250           1.750
 91  6 19 21 32 44.9980000  0  4G 2G 6G13G12
  22604887.373     8181807.803 6   6311720.37421        15.000           0.875
  22231247.272     8244392.701 6   6424195.41321        15.000           0.750
  19850315.115   -10429574.474 7  -8126936.95421        27.000           1.375
  21668677.834   -12504142.036 7  -9483625.53622        21.750           1.688
 91  6 19 21 32 59.9980000  0  4G 2G 6G13G12
  22610832.389     8213039.816 6   6336056.98421        15.500           0.813
  22239382.889     8287158.120 6   6457519.08421        14.500           0.781
  19850508.772   -10428555.442 7  -8126142.90921        26.750           1.406
  21660092.389   -12549244.454 7  -9518770.26122        21.500           1.781
 91  6 19 21 33 14.9980000  0  4G 2G 6G13G12
  22616782.662     8244328.093 6   6360437.43521        13.250           0.688
  22247538.420     8330018.398 6   6490916.66021        14.000           0.656
  19850727.693   -10427406.895 7  -8125247.93721        27.250           1.375
  21651527.998   -12594259.728 7  -9553847.08222        22.000           1.656
 91  6 19 21 33 29.9980000  0  4G 2G 6G13G12
  22622749.076     8275670.492 6   6384860.04021        14.500           0.906
  22255712.264     8372971.210 6   6524386.33521        13.750           0.813
  19850971.732   -10426131.122 7  -8124253.83121        27.250           1.281
  21642977.475   -12639189.600 7  -9588857.35122        21.750           1.625
 91  6 19 21 33 44.9980000  0  4G 2G 6G13G12
  22628722.217     8307065.204 6   6409323.42121        14.250           0.844
  22263902.662     8416014.538 6   6557926.55521        13.750           0.781
  19851236.764   -10424729.985 7  -8123162.03921        26.750           1.406
  21634441.834   -12684035.472 7  -9623802.16822        21.500           1.719
 91  6 19 21 33 59.9980000  0  4G 2G 6G13G12
  22634707.756     8338511.649 6   6433827.11721        14.000           0.906
  22272108.873     8459147.791 6   6591536.83321        13.500           0.781
  19851526.436   -10423204.277 7  -8121973.17721        27.000           1.281
  21625924.959   -12728797.618 7  -9658681.74222        21.750           1.719
 91  6 19 21 34 14.9980000  0  4G 2G 6G13G12
  22640702.678     8370016.182 6   6458376.05221        14.500           0.813
  22280338.639     8502377.038 6   6625221.91621        13.750           0.875
  19851841.436   -10421547.772 7  -8120682.39821        26.750           1.344
  21617424.912   -12773469.381 7  -9693490.88922        22.000           1.656
 91  6 19 21 34 29.9980000  0  4G 2G 6G13G12
  22646708.600     8401575.673 6   6482967.83821        14.750           0.938
  22288584.217     8545698.857 6   6658979.12621        14.250           0.844
  19852182.264   -10419763.739 7  -8119292.24321        26.750           1.438
  21608941.936   -12818053.553 7  -9728231.79022        22.000           1.563
 91  6 19 21 34 44.9980000  0  4G 2G 6G13G12
  22652725.397     8433189.617 6   6507602.03721        15.500           0.875
  22296842.982     8589112.552 6   6692807.92421        13.750           0.906
  19852545.053   -10417852.869 7  -8117803.25621        26.000           1.313
  21600472.107   -12862550.216 7  -9762904.49922        21.750           1.656
 91  6 19 21 34 59.9980000  0  4G 2G 6G13G12
  22658751.568     8464865.607 6   6532284.60521        14.500           0.938
  22305122.139     8632625.480 6   6726714.05521        13.250           0.875
  19852935.631   -10415807.751 7  -8116209.67021        26.750           1.375
  21592023.397   -12906951.401 7  -9797502.80422        22.000           1.750
 91  6 19 21 35 14.9980000  0  4G 2G 6G13G12
  22664792.342     8496600.427 6   6557012.98621        15.000           0.938
  22313422.982     8676234.306 6   6760694.90721        14.000           0.906
  19853348.014   -10413631.797 7  -8114514.12221        26.000           1.344
  21583591.365   -12951259.696 7  -9832028.72822        22.250           1.656
 91  6 19 21 35 29.9980000  0  4G 2G 6G13G12
  22670839.389     8528389.762 6   6581783.85921        14.000           0.969
  22321738.162     8719934.448 6   6794746.91921        14.250           0.844
  19853786.920   -10411329.522 7  -8112720.14521        26.500           1.375
  21575175.732   -12995479.176 7  -9866485.45022        22.000           1.719
 91  6 19 21 35 44.9980000  0  4G 2G 6G13G12
  22676899.232     8560236.757 6   6606599.65821        14.750           0.906
  22330070.772     8763728.929 6   6828872.44421        13.750           0.844
  19854249.068   -10408897.890 7  -8110825.36521        26.250           1.344
  21566778.779   -13039606.287 7  -9900870.19522        22.250           1.844
 91  6 19 21 35 59.9980000  0  4G 2G 6G13G12
  22682972.326     8592138.324 6   6631458.01021        13.750           1.031
  22338423.982     8807614.398 6   6863068.86821        14.250           0.906
  19854737.482   -10406339.998 7  -8108832.21421        26.500           1.375
  21558400.139   -13083643.758 7  -9935185.08722        22.250           1.656
 91  6 19 21 36 14.9980000  0  4G 2G 6G13G12
  22689054.131     8624100.358 6   6656363.42721        14.250           0.875
  22346793.904     8851596.445 6   6897340.55021        14.250           0.813
  19855248.397   -10403650.553 7  -8106736.54121        26.500           1.344
  21550036.779   -13127585.487 7  -9969425.37722        21.750           1.750
 91  6 19 21 36 29.9980000  0  4G 2G 6G13G12
  22695145.959     8656119.437 6   6681313.32121        13.500           0.875
  22355181.037     8895671.293 6   6931684.53021        14.500           0.906
  19855785.131   -10400832.844 7  -8104540.93321        26.750           1.313
  21541692.467   -13171434.572 7 -10003593.47622        21.750           1.719
 91  6 19 21 36 44.9980000  0  4G 2G 6G13G12
  22701248.279     8688195.024 6   6706307.23821        13.000           0.750
  22363585.904     8939838.425 6   6966100.42921        14.500           0.844
  19856344.623   -10397887.608 7  -8102245.95121        26.500           1.281
  21533367.342   -13215190.928 7 -10037689.31922        22.000           1.719
 91  6 19 21 36 59.9980000  0  4G 2G 6G13G12
  22707364.365     8720325.182 6   6731343.67921        13.750           0.906
  22372005.904     8984095.610 6   7000586.50221        14.250           0.813
  19856929.889   -10394817.158 7  -8099853.39521        26.500           1.313
  21525056.654   -13258856.280 7 -10071714.25522        21.750           1.625
 91  6 19 21 37 14.9980000  0  4G 2G 6G13G12
  22713487.943     8752509.223 6   6756422.10121        13.000           0.813
  22380445.311     9028442.041 6   7035142.11221        14.000           0.844
  19857538.193   -10391622.014 7  -8097363.67221        26.750           1.281
  21516766.232   -13302430.887 7 -10105668.47522        22.000           1.719
 91  6 19 21 37 29.9980000  0  4G 2G 6G13G12
  22719624.240     8784747.109 6   6781542.49721        13.750           0.719
  22388898.889     9072877.452 6   7069767.05521        13.750           0.750
  19858168.873   -10388302.628 7  -8094777.14221        26.750           1.375
  21508490.615   -13345914.407 7 -10139551.72022        21.750           1.750
 91  6 19 21 37 44.9980000  0  4G 2G 6G13G12
  22725766.365     8817038.981 6   6806704.96121        13.750           0.719
  22397374.193     9117401.682 6   7104461.21621        14.250           0.781
  19858824.053   -10384859.040 7  -8092093.83221        26.500           1.313
  21500233.311   -13389306.342 7 -10173363.59822        22.000           1.781
 91  6 19 21 37 59.9980000  0  4G 2G 6G13G12
  22731921.693     8849384.235 6   6831909.01121        13.500           0.594
  22405863.639     9162014.005 6   7139224.02221        14.250           0.813
  19859503.686   -10381292.001 7  -8089314.32721        26.500           1.281
  21491993.623   -13432606.900 7 -10207104.28222        22.000           1.719
 91  6 19 21 38 14.9980000  0  4G 2G 6G13G12
  22738089.318     8881780.776 6   6857153.04421        14.750           0.625
  22414366.615     9206712.019 6   7174053.59021        13.250           0.813
  19860205.990   -10377603.894 7  -8086440.48621        26.500           1.219
  21483770.623   -13475817.850 7 -10240775.13222        22.250           1.813
 91  6 19 21 38 29.9980000  0  4G 2G 6G13G12
  22744263.873     8914234.667 6   6882441.75921        14.500           0.531
  22422889.959     9251501.592 6   7208954.52221        13.500           0.656
  19860931.232   -10373788.620 7  -8083467.54821        26.250           1.375
  21475566.170   -13518932.745 7 -10274371.13922        22.250           1.750
 91  6 19 21 38 44.9980000  0  4G 2G 6G13G12
  22750450.631     8946740.053 6   6907770.59921        14.500           0.750
  22431432.451     9296376.669 6   7243922.06421        14.000           0.719
  19861679.607   -10369852.464 7  -8080400.41721        26.000           1.313
  21467380.186   -13561957.083 7 -10307896.57822        22.750           1.813
 91  6 19 21 38 59.9980000  0  4G 2G 6G13G12
  22756646.623     8979295.898 6   6933138.73221        15.000           0.813
  22439986.076     9341335.977 6   7278955.25921        13.750           0.750
  19862450.795   -10365796.648 7  -8077240.04921        26.000           1.406
  21459209.795   -13604891.412 7 -10341351.87822        22.500           1.875
 91  6 19 21 39 14.9980000  0  4G 2G 6G13G12
  22762853.193     9011909.490 6   6958551.88521        15.750           0.688
  22448559.592     9386386.786 6   7314059.73921        13.250           0.688
  19863247.068   -10361613.747 7  -8073980.64921        26.000           1.406
  21451055.514   -13647727.952 7 -10374730.98622        22.750           1.844
 91  6 19 21 39 29.9980000  0  4G 2G 6G13G12
  22769064.834     9044578.012 6   6984007.85021        14.250           0.625
  22457149.045     9431525.817 6   7349232.96421        13.250           0.781
  19864066.701   -10357306.916 7  -8070624.68321        26.000           1.375
  21442925.092   -13690469.334 7 -10408035.94722        23.500           1.813
 91  6 19 21 39 44.9980000  0  4G 2G 6G13G12
  22775295.014     9077301.322 6   7009506.49021        15.250           0.750
  22465756.248     9476752.769 6   7384474.70521        13.500           0.625
  19864910.248   -10352876.450 7  -8067172.37621        25.750           1.375
  21434809.201   -13733115.351 7 -10441266.59322        23.250           1.875
 91  6 19 21 39 59.9980000  0  4G 2G 6G13G12
  22781531.920     9110076.327 6   7035045.41421        14.750           0.750
  22474378.654     9522064.382 6   7419782.40921        13.500           0.656
  19865776.217   -10348325.481 7  -8063626.17121        25.750           1.438
  21426712.904   -13775668.613 7 -10474424.96222        23.500           1.781
 91  6 19 21 40 14.9980000  0  4G 2G 6G13G12
  22787778.732     9142905.073 6   7060626.19621        14.750           0.750
  22483020.545     9567462.415 6   7455157.46821        13.750           0.625
  19866664.623   -10343652.226 7  -8059984.68121        25.750           1.406
  21418633.053   -13818126.749 7 -10507509.20622        23.750           1.938
 91  6 19 21 40 29.9980000  0  4G 2G 6G13G12
  22794036.975     9175790.749 6   7086251.38421        14.750           0.688
  22491674.037     9612949.813 6   7490602.13521        12.750           0.656
  19867578.443   -10338853.904 7  -8056245.72721        26.000           1.313
  21410570.795   -13860486.252 7 -10540516.59122        23.500           1.969
 91  6 19 21 40 44.9980000  0  4G 2G 6G13G12
  22800304.686     9208729.743 6   7111918.08821        13.500           0.781
  22500346.623     9658522.950 6   7526113.62821        12.250           0.688
  19868515.076   -10333934.097 7  -8052412.11722        26.250           1.531
  21402529.678   -13902750.131 7 -10573449.46922        24.000           1.969
 91  6 19 21 40 59.9980000  0  4G 2G 6G13G12
  22806584.303     9241721.492 6   7137625.90621        13.750           0.781
  22509034.912     9704180.886 6   7561691.19621        12.000           0.750
  19869472.303   -10328893.589 7  -8048484.45322        26.250           1.531
  21394504.920   -13944918.707 7 -10606308.08122        24.000           2.000
 91  6 19 21 41 14.9980000  0  4G 2G 6G13G12
  22812872.006     9274769.289 6   7163377.40621        14.000           0.781
  22517737.389     9749926.704 5   7597337.23721        11.750           0.719
  19870456.686   -10323729.186 7  -8044460.24722        26.000           1.531
  21386498.459   -13986988.401 7 -10639089.63722        24.250           2.000
 91  6 19 21 41 29.9980000  0  4G 2G 6G13G12
  22819170.920     9307879.264 6   7189177.35421        12.250           0.906
  22526461.959     9795766.261 5   7633056.33521        11.500           0.719
  19871463.170   -10318435.225 7  -8040335.08822        26.500           1.500
  21378512.756   -14028952.684 7 -10671789.06522        24.000           1.844
 91  6 19 21 41 44.9980000  0  4G 2G 6G13G12
  22825484.545     9341048.081 6   7215023.13721        12.500           0.813
  22535203.053     9841696.050 5   7668845.72021        11.250           0.625
  19872496.123   -10313015.250 7  -8036111.73822        26.750           1.563
  21370547.967   -14070814.550 7 -10704408.68022        24.250           1.844
 91  6 19 21 41 59.9980000  0  4G 2G 6G13G12
  22831806.748     9374271.036 6   7240911.08721        12.250           0.750
  22543960.357     9887711.163 5   7704701.60221        11.250           0.656
  19873551.053   -10307474.023 7  -8031793.89922        26.500           1.594
  21362600.100   -14112578.213 7 -10736951.77822        24.500           1.906
 91  6 19 21 42 14.9980000  0  4G 2G 6G13G12
  22838138.982     9407550.302 6   7266842.95421        12.750           0.938
  22552733.139     9933813.594 5   7740625.52721        11.000           0.594
  19874627.772   -10301809.364 7  -8027379.88322        26.750           1.500
  21354670.904   -14154241.059 7 -10769416.31922        24.250           1.875
 91  6 19 21 42 29.9980000  0  4G 2G 6G13G12
  22844482.107     9440877.125 5   7292811.84521        11.000           0.625
  22561520.592     9979994.294 5   7776610.44421        11.750           0.688
  19875727.826   -10296030.432 7  -8022876.82422        26.750           1.531
  21346761.662   -14195811.561 7 -10801808.89722        24.500           1.938
 91  6 19 21 42 44.9980000  0  4G 2G 6G13G12
  22850831.811     9474254.216 6   7318819.88621        12.250           0.563
  22570322.842    10026255.882 5   7812658.37321        11.750           0.688
  19876850.654   -10290134.394 7  -8018282.51522        26.750           1.531
  21338867.076   -14237286.522 7 -10834127.03122        24.000           1.969
 91  6 19 21 42 59.9980000  0  4G 2G 6G13G12
  22857193.959     9507684.892 5   7344869.73121        11.750           0.469
  22579142.022    10072601.408 6   7848771.72921        12.000           0.625
  19877995.373   -10284118.288 7  -8013594.64322        26.750           1.500
  21330993.592   -14278662.224 7 -10866367.82322        24.250           1.844
 91  6 19 21 43 14.9980000  0  4G 2G 6G13G12
  22863567.139     9541170.562 6   7370962.44321        12.500           0.469
  22587981.584    10119031.955 6   7884951.32821        12.500           0.719
  19879161.709   -10277980.955 7  -8008812.30822        26.250           1.625
  21323140.670   -14319936.927 7 -10898529.91222        24.250           2.063
 91  6 19 21 43 29.9980000  0  4G 2G 6G13G12
  22869949.912     9574706.111 6   7397093.99221        13.250           0.594
  22596827.475    10165542.225 6   7921193.03821        12.250           0.625
  19880352.951   -10271727.627 7  -8003939.59022        26.250           1.500
  21315304.232   -14361115.450 7 -10930617.05222        24.000           2.031
 91  6 19 21 43 44.9980000  0  4G 2G 6G13G12
  22876341.436     9608298.898 6   7423270.17021        12.000           0.625
  22605694.717    10212139.398 6   7957502.47921        12.500           0.594
  19881565.982   -10265351.008 7  -7998970.80522        26.750           1.531
  21307488.232   -14402189.895 7 -10962623.09922        24.000           1.938
 91  6 19 21 43 59.9980000  0  4G 2G 6G13G12
  22882744.350     9641946.364 6   7449488.89821        12.750           0.625
  22614579.193    10258820.516 6   7993877.33021        12.750           0.531
  19882801.662   -10258854.275 7  -7993908.41522        26.500           1.594
  21299691.795   -14443162.717 7 -10994549.95722        24.250           1.938
 91  6 19 21 44 14.9980000  0  4G 2G 6G13G12
  22889157.186     9675646.933 6   7475749.02821        13.000           0.656
  22623477.139    10305583.873 6   8030316.25821        12.500           0.531
  19884061.522   -10252239.032 7  -7988753.68421        27.500           1.438
  21291912.795   -14484034.969 7 -11026398.44822        24.000           2.031
 91  6 19 21 44 29.9980000  0  4G 2G 6G13G12
  22895578.545     9709391.473 6   7502043.42721        13.250           0.594
  22632389.764    10352420.208 6   8066812.05621        12.250           0.531
  19885341.756   -10245514.506 7  -7983513.79622        27.250           1.500
  21284153.264   -14524815.338 7 -11058175.34122        24.250           2.000
 91  6 19 21 44 44.9980000  0  4G 2G 6G13G12
  22902010.490     9743192.866 6   7528382.10321        14.000           0.531
  22641317.475    10399342.008 6   8103374.43721        12.250           0.656
  19886644.326   -10238668.068 7  -7978178.91322        27.000           1.594
  21276413.154   -14565490.663 7 -11089870.38922        24.250           2.125
 91  6 19 21 44 59.9980000  0  4G 2G 6G13G12
  22908453.990     9777046.447 6   7554761.51821        14.000           0.531
  22650263.912    10446344.539 6   8139999.74221        12.750           0.594
  19887969.123   -10231704.461 7  -7972752.73022        27.000           1.500
  21268692.389   -14606065.124 7 -11121486.83422        24.500           2.000
 91  6 19 21 45 14.9980000  0  4G 2G 6G13G12
  22914905.287     9810955.770 6   7581184.32021        13.750           0.469
  22659226.436    10493431.195 6   8176690.60421        13.000           0.531
  19889316.045   -10224620.304 7  -7967232.61022        26.750           1.531
  21260992.014   -14646534.715 7 -11153021.56322        24.250           2.094
 91  6 19 21 45 29.9980000  0  4G 2G 6G13G12
  22921369.451     9844920.169 6   7607650.05421        14.250           0.531
  22668202.795    10540600.814 6   8213446.09121        12.500           0.625
  19890686.834   -10217416.823 7  -7961619.51422        26.750           1.563
  21253309.514   -14686899.972 7 -11184474.99522        24.000           2.188
 91  6 19 21 45 44.9980000  0  4G 2G 6G13G12
  22927844.623     9878942.461 6   7634160.90921        13.500           0.563
  22677190.920    10587856.200 6   8250268.40821        12.500           0.688
  19892081.342   -10210091.221 7  -7955911.25522        27.000           1.563
  21245649.178   -14727157.647 7 -11215844.59122        24.250           2.125
 91  6 19 21 45 59.9980000  0  4G 2G 6G13G12
  22934327.467     9913020.957 6   7660715.51321        13.250           0.625
  22686201.076    10635195.514 6   8287156.12921        12.250           0.531
  19893499.107   -10202645.211 7  -7950109.17222        27.000           1.625
  21238010.279   -14767308.864 7 -11247131.23722        24.750           2.125
 91  6 19 21 46 14.9980000  0  4G 2G 6G13G12
  22940823.248     9947154.307 6   7687312.88221        13.750           0.500
  22695227.029    10682617.134 6   8324107.98721        12.750           0.625
  19894937.897   -10195080.270 7  -7944214.41722        27.000           1.625
  21230388.381   -14807354.612 7 -11278335.69422        24.500           2.125
 91  6 19 21 46 29.9980000  0  4G 2G 6G13G12
  22947328.943     9981337.780 6   7713949.31921        14.000           0.656
  22704264.373    10730116.059 6   8361120.07921        12.000           0.500
  19896399.404   -10187401.475 7  -7938230.93822        26.750           1.594
  21222786.678   -14847299.240 7 -11309461.36822        24.750           2.156
 91  6 19 21 46 44.9980000  0  4G 2G 6G13G12
  22953844.170    10015573.053 6   7740626.09721        12.500           0.656
  22713318.475    10777693.543 6   8398193.39621        12.250           0.500
  19897883.022   -10179607.399 7  -7932157.63622        27.000           1.625
  21215205.818   -14887140.898 7 -11340506.79622        25.000           2.031
 91  6 19 21 46 59.9980000  0  4G 2G 6G13G12
  22960366.373    10049852.772 6   7767337.50221        12.500           0.563
  22722382.225    10825342.256 6   8435322.19721        12.000           0.625
  19899386.389   -10171705.540 7  -7926000.34722        27.250           1.719
  21207641.779   -14926886.367 7 -11371477.27622        25.000           1.938
 91  6 19 21 47 14.9980000  0  4G 2G 6G13G12
  22966896.318    10084175.803 6   7794082.69321        12.000           0.594
  22731468.014    10873060.754 6   8472505.38021        12.250           0.563
  19900909.717   -10163697.079 7  -7919759.99222        27.250           1.656
  21200096.889   -14966536.478 7 -11402373.45222        24.500           1.969
 91  6 19 21 47 29.9980000  0  4G 2G 6G13G12
  22973438.678    10118554.397 6   7820871.14821        12.500           0.531
  22740563.193    10920861.107 5   8509752.35721        11.500           0.500
  19902456.967   -10155569.836 7  -7913427.07622        27.250           1.656
  21192571.428   -15006078.540 7 -11433185.43122        24.250           1.906
 91  6 19 21 47 44.9980000  0  4G 2G 6G13G12
  22979991.584    10152978.610 6   7847695.17621        12.500           0.563
  22749671.764    10968733.085 5   8547055.13421        11.250           0.531
  19904024.225   -10147334.097 7  -7907009.62122        27.500           1.688
  21185067.045   -15045522.337 7 -11463920.84522        24.250           1.844
 91  6 19 21 47 59.9980000  0  4G 2G 6G13G12
  22986553.084    10187467.352 6   7874569.48221        12.250           0.531
  22758799.248    11016695.290 5   8584428.21821        11.500           0.531
  19905616.022   -10138971.404 7  -7900493.24322        27.750           1.688
  21177582.647   -15084848.442 7 -11494564.54822        23.500           2.094
 91  6 19 21 48 14.9980000  0  4G 2G 6G13G12
  22993126.467    10222005.053 6   7901481.91321        13.000           0.531
  22767939.600    11064732.024 5   8621859.38321        11.250           0.531
  19907228.373   -10130497.433 7  -7893890.14622        27.250           1.625
  21170115.576   -15124072.070 7 -11525128.40122        23.250           2.094
 91  6 19 21 48 29.9980000  0  4G 2G 6G13G12
  22999709.272    10256590.859 6   7928431.86421        13.750           0.688
  22777095.272    11112842.127 5   8659347.71121        11.250           0.469
  19908861.061   -10121913.024 7  -7887201.00322        27.000           1.719
  21162673.818   -15163193.640 7 -11555612.72622        23.750           2.063
 91  6 19 21 48 44.9980000  0  4G 2G 6G13G12
  23006299.686    10291226.319 6   7955420.48921        13.500           0.625
  22786264.217    11161027.104 5   8696894.39221        11.250           0.438
  19910515.670   -10113216.745 7  -7880424.68122        27.250           1.750
  21155248.982   -15202211.114 7 -11586015.94122        23.250           2.188
 91  6 19 21 48 59.9980000  0  4G 2G 6G13G12
  23012900.756    10325912.527 6   7982448.66421        13.250           0.594
  22795446.389    11209287.790 5   8734500.04921        11.500           0.469
  19912193.662   -10104407.869 7  -7873560.63022        27.250           1.688
  21147843.647   -15241123.145 7 -11616336.99022        23.250           2.094
 91  6 19 21 49 14.9980000  0  4G 2G 6G13G12
  23019513.412    10360654.954 6   8009520.63621        13.250           0.656
  22804645.857    11257629.222 5   8772168.65421        11.000           0.438
  19913891.576   -10095481.201 7  -7866604.78322        27.250           1.813
  21140460.639   -15279923.861 7 -11646571.30222        23.250           2.125
 91  6 19 21 49 29.9980000  0  4G 2G 6G13G12
  23026130.647    10395440.062 5   8036625.89621        11.500           0.656
  22813858.475    11306037.886 5   8809889.63721        11.500           0.469
  19915609.342   -10086450.318 7  -7859567.72922        27.250           1.781
  21133096.248   -15318626.441 7 -11676729.14422        23.750           2.188
 91  6 19 21 49 44.9980000  0  4G 2G 6G13G12
  23032758.076    10430281.629 5   8063775.09221        11.250           0.563
  22823084.357    11354527.091 5   8847673.36121        11.500           0.625
  19917350.912   -10077301.734 7  -7852438.96522        27.250           1.719
  21125751.873   -15357216.776 7 -11706799.51922        24.000           2.219
 91  6 19 21 49 59.9980000  0  4G 2G 6G13G12
  23039398.928    10465177.671 6   8090966.77621        12.250           0.594
  22832328.186    11403094.847 5   8885518.31221        11.250           0.406
  19919113.404   -10068037.561 7  -7845220.13622        27.000           1.813
  21118431.201   -15395696.407 7 -11736783.63422        24.500           2.156
 91  6 19 21 50 14.9980000  0  4G 2G 6G13G12
  23046049.811    10500123.624 5   8118197.37321        11.250           0.719
  22841585.365    11451736.214 5   8923420.62921        11.750           0.563
  19920897.451   -10058662.680 7  -7837915.04222        26.750           1.781
  21111127.787   -15434069.512 7 -11766684.75122        24.500           2.125
 91  6 19 21 50 29.9980000  0  4G 2G 6G13G12
  23052711.123    10535122.825 6   8145469.41021        13.000           0.750
  22850854.217    11500454.363 5   8961382.75321        11.500           0.344
  19922702.811   -10049173.925 7  -7830521.20522        26.500           1.656
  21103847.639   -15472332.403 7 -11796499.97622        25.000           2.156
 91  6 19 21 50 44.9980000  0  4G 2G 6G13G12
  23059381.029    10570171.388 6   8172779.93421        12.750           0.625
  22860140.748    11549245.178 5   8999401.51621        11.500           0.469
  19924530.232   -10039575.120 7  -7823041.62022        26.750           1.719
  21096585.865   -15510488.509 7 -11826231.99122        25.000           2.344
 91  6 19 21 50 59.9980000  0  4G 2G 6G13G12
  23066059.264    10605270.913 6   8200130.18421        12.500           0.656
  22869437.982    11598109.960 5   9037477.91221        11.250           0.344
  19926376.943   -10029865.278 7  -7815475.51422        26.500           1.719
  21089346.037   -15548535.872 7 -11855879.28422        25.250           2.344
 91  6 19 21 51 14.9980000  0  4G 2G 6G13G12
  23072748.975    10640427.044 6   8227524.51221        12.500           0.438
  22878752.068    11647054.183 5   9075616.21321        11.500           0.375
  19928246.631   -10020038.840 7  -7807818.55322        26.500           1.781
  21082127.420   -15586468.482 7 -11885437.15522        25.000           2.250
 91  6 19 21 51 29.9980000  0  4G 2G 6G13G12
  23079448.623    10675632.341 6   8254957.17821        12.250           0.469
  22888080.982    11696070.177 5   9113810.42621        11.250           0.469
  19930138.334   -10010103.219 7  -7800076.51822        26.500           1.750
  21074930.240   -15624293.387 7 -11914911.09222        25.000           2.375
 91  6 19 21 51 44.9980000  0  4G 2G 6G13G12
  23086159.404    10710893.451 6   8282433.32921        12.250           0.500
  22897419.232    11745164.292 5   9152065.51221        11.000           0.344
  19932050.881   -10000052.115 7  -7792244.49322        27.000           1.813
  21067753.889   -15662003.648 7 -11944295.70022        25.250           2.219
 91  6 19 21 51 59.9980000  0  4G 2G 6G13G12
  23092879.428    10746207.963 6   8309951.08521        12.250           0.500
  22906779.615    11794333.998 5   9190379.52021        11.000           0.375
  19933985.178    -9989888.130 7  -7784324.51322        27.000           1.656
  21060598.881   -15699601.190 7 -11973592.47822        25.250           2.313
 91  6 19 21 52 14.9980000  0  4G 2G 6G13G12
  23099609.467    10781580.535 5   8337514.10121        11.250           0.406
  22916149.818    11843583.757 5   9228755.88621        11.000           0.406
  19935941.100    -9979606.747 7  -7776313.04622        27.000           1.656
  21053467.412   -15737080.902 7 -12002797.43722        25.750           2.281
 91  6 19 21 52 29.9980000  0  4G 2G 6G13G12
  23106348.951    10817004.706 5   8365117.27921        10.750           0.531
  22925535.022    11892906.603 5   9267189.21521        11.250           0.375
  19937919.209    -9969214.681 7  -7768215.33922        27.000           1.594
  21046357.537   -15774449.062 7 -12031915.47222        25.500           2.313
 91  6 19 21 52 44.9980000  0  4G 2G 6G13G12
  23113101.482    10852475.699 5   8392757.02321        11.250           0.594
  22934932.686    11942297.767 5   9305675.77721        10.750           0.406
  19939916.615    -9958716.852 7  -7760035.21922        26.750           1.719
  21039265.420   -15811709.994 7 -12060949.95422        25.750           2.375
 91  6 19 21 52 59.9980000  0  4G 2G 6G13G12
  23119859.740    10887999.781 5   8420438.06321        10.500           0.469
  22944349.350    11991763.239 5   9344220.23121        11.250           0.438
  19941936.170    -9948107.104 7  -7751767.88922        27.000           1.656
  21032196.428   -15848857.088 7 -12089895.73222        25.500           2.313
 91  6 19 21 53 14.9980000  0  4G 2G 6G13G12
  23126631.123    10923574.504 5   8448158.58621        11.750           0.594
  22953775.014    12041300.219 5   9382820.42321        11.000           0.438
  19943975.186    -9937388.254 7  -7743415.54522        26.500           1.625
  21025148.287   -15885892.462 7 -12118754.45322        25.500           2.281
 91  6 19 21 53 29.9980000  0  4G 2G 6G13G12
  23133412.287    10959197.725 5   8475916.89221        11.000           0.406
  22963215.592    12090906.503 5   9421474.60921        11.250           0.406
  19946035.897    -9926562.513 7  -7734979.91022        27.000           1.656
  21018122.756   -15922817.826 7 -12147527.45222        25.500           2.344
 91  6 19 21 53 44.9980000  0  4G 2G 6G13G12
  23140197.115    10994872.297 5   8503715.20921        10.500           0.500
  22972667.037    12140584.654 5   9460184.79621        11.250           0.406
  19948116.490    -9915627.241 7  -7726458.92522        27.500           1.656
  21011116.732   -15959629.910 7 -12176212.18322        25.250           2.375
 91  6 19 21 53 59.9980000  0  4G 2G 6G13G12
  23146996.217    11030597.980 5   8531553.34321        10.250           0.438
  22982134.318    12190334.217 5   9498950.63221        11.250           0.344
  19950218.459    -9904583.028 7  -7717853.04922        27.250           1.656
  21004133.857   -15996328.571 7 -12204808.53022        25.500           2.344
 91  6 19 21 54 14.9980000  0  4G 2G 6G13G12
  23153801.467    11066371.435 5   8559428.72321         9.500           0.594
  22991615.092    12240151.571 5   9537769.28221        11.250           0.344
  19952339.756    -9893433.299 7  -7709164.95722        27.250           1.594
  20997170.811   -16032916.839 7 -12233318.86022        25.500           2.219
 91  6 19 21 54 29.9980000  0  4G 2G 6G13G12
  23160620.709    11102200.387 5   8587347.34521        10.500           0.531
  23001108.725    12290044.143 5   9576646.54221        10.750           0.375
  19954483.990    -9882170.632 7  -7700388.85322        27.250           1.688
  20990231.654   -16069386.635 7 -12261736.86622        26.500           2.313
 91  6 19 21 54 44.9980000  0  4G 2G 6G13G12
  23167451.592    11138088.124 5   8615311.72621        10.500           0.375
  23010621.381    12340015.120 5   9615584.90521        11.000           0.406
  19956648.568    -9870791.846 7  -7691522.27522        26.750           1.750
  20983314.740   -16105734.205 7 -12290059.64122        26.500           2.219
 91  6 19 21 54 59.9980000  0  4G 2G 6G13G12
  23174287.811    11174024.407 5   8643314.02121         9.500           0.500
  23020141.334    12390053.936 5   9654576.12121        10.250           0.438
  19958834.100    -9859307.398 7  -7682573.36722        27.000           1.656
  20976418.240   -16141969.381 7 -12318294.83722        26.500           2.375
 91  6 19 21 55 14.9980000  0  4G 2G 6G13G12
  23181135.756    11210005.671 5   8671351.29221        10.250           0.563
  23029675.990    12440156.793 5   9693617.26121        10.250           0.406
  19961038.225    -9847720.966 7  -7673544.97722        26.750           1.719
  20969544.467   -16178095.548 7 -12346445.08722        26.000           2.250
 91  6 19 21 55 29.9980000  0  4G 2G 6G13G12
  23187992.811    11246035.156 5   8699426.16621        10.750           0.531
  23039222.982    12490326.644 5   9732710.55921        10.500           0.438
  19963263.115    -9836029.630 7  -7664434.85722        27.000           1.688
  20962691.084   -16214108.946 7 -12374507.46722        26.250           2.313
 91  6 19 21 55 44.9980000  0  4G 2G 6G13G12
  23194860.334    11282118.565 5   8727543.05521        10.750           0.406
  23048781.186    12540569.167 5   9771860.52021        10.250           0.438
  19965509.482    -9824227.891 7  -7655238.70722        27.000           1.656
  20955860.818   -16250003.393 7 -12402477.15522        26.250           2.375
 91  6 19 21 55 59.9980000  0  4G 2G 6G13G12
  23201734.881    11318251.564 5   8755698.58821        10.500           0.656
  23058356.647    12590879.774 5   9811063.51221        10.250           0.344
  19967775.084    -9812319.999 7  -7645959.83922        26.750           1.625
  20949052.764   -16285782.761 7 -12430357.17222        26.750           2.375
